     2.10           OBSERVATION DATA    G (GPS)             RINEX VERSION / TYPE
teqc 2006Apr13 CORS-ADM Account 20060628 21:04:09UTC        PGM / RUN BY / DATE
Solaris 5.9|UltraSparc IIi|cc -xarch=v9 SC5.5|=+-|*Sparc    COMMENT
teqc 2006Apr13 CORS/NGS/NOAA 20060628 21:04:08UTC           COMMENT
BIT 2 OF LLI FLAGS DATA COLLECTED UNDER A/S CONDITION       COMMENT
jama                                                        MARKER NAME
42601S001                                                   MARKER NUMBER
Frank E Marion NOAA, National Geodetic Survey               OBSERVER / AGENCY
ZR220022405 ASHTECH UZ-12 CK00                              REC # / TYPE / VERS
114 AOAD/M_TA_NGS SNOW                                      ANT # / TYPE
  1388060.4401 -5909150.8065  1951964.1158                  APPROX POSITION XYZ
        0.0000        0.0000        0.0000                  ANTENNA: DELTA H/E/N
     1     1                                                WAVELENGTH FACT L1/2
     7    C1    L1    L2    P1    P2    D1    D2            # / TYPES OF OBSERV
    30.0000                                                 INTERVAL
SNR is mapped to RINEX snr flag value [0-9]                 COMMENT
L1 & L2: min(max(int(snr_dBHz/6), 0), 9)                    COMMENT
pseudorange smoothing corrections not applied               COMMENT
Forced Modulo Decimation to 30 seconds                      COMMENT
  2006     6    28    20     0    0.0000000     GPS         TIME OF FIRST OBS
                                                            END OF HEADER
 06  6 28 20  0  0.0000000  0  8G14G30G 6G 1G 7G16G22G25
  21697611.8304  -15436119.91048 -11988775.18747  21697611.8084   21697612.8164
        54.5074         42.4834
  23169432.3274  -12116376.76547  -9438842.04346  23169432.2994   23169434.4904
     -3020.1284      -2353.3324
  24224484.5524   -5989661.56046  -4651955.07646  24224484.7614   24224489.0464
       613.2074        477.8224
  22104420.2664  -16617612.94248 -12942685.42547  22104419.8864   22104422.8284
      1534.7644       1195.9134
  23640301.4854   -6037149.86847  -4698681.93546  23640300.6614   23640306.5504
      1873.9974       1460.2594
  21765699.5104  -17430380.65648 -13571452.22647  21765699.5694   21765702.3334
      2896.1524       2256.7504
  21529524.4404  -13907214.40548 -10826830.12847  21529524.1194   21529525.7524
     -2559.3674      -1994.2964
  21621352.3084  -12378599.67448  -9639177.87147  21621352.1734   21621353.7844
      -495.9034       -386.4194
 06  6 28 20  0 30.0000000  0  8G14G30G 6G 1G 7G16G22G25
  21697317.2514  -15437667.23548 -11989980.92547  21697316.9974   21697318.8624
        49.3814         38.4694
  23186704.4214  -12025617.29847  -9368120.43146  23186704.6944   23186706.3084
     -3029.5404      -2360.6784
  24221005.7304   -6007936.98346  -4666195.59746  24221006.4274   24221012.7254
       605.6914        471.9614
  22095657.0334  -16663663.44548 -12978568.92547  22095656.7204   22095659.8594
      1535.9934       1196.9034
  23629594.2374   -6093410.01047  -4742520.91846  23629593.5994   23629601.3204
      1877.7544       1463.1844
  21749197.1024  -17517099.31348 -13639025.15447  21749196.6674   21749199.2984
      2885.6854       2248.5854
  21544172.9414  -13830240.79048 -10766850.72147  21544172.3834   21544173.3414
     -2571.5104      -2003.7584
  21624193.7934  -12363665.62848  -9627540.95247  21624194.3404   21624195.5444
      -499.0534       -388.8624
 06  6 28 20  1  0.0000000  0  8G14G30G 6G 1G 7G16G22G25
  21697056.0754  -15439041.03948 -11991051.42747  21697056.0994   21697057.1184
        42.5724         33.1634
  23204032.8044  -11934551.99747  -9297160.49146  23204034.5154   23204034.3424
     -3040.7774      -2369.4344
  24217575.2274   -6025973.82047  -4680250.20046  24217575.1494   24217577.8814
       596.8924        465.1124
  22086891.5614  -16709728.25448 -13014463.57447  22086891.7694   22086893.6624
      1535.4384       1196.4294
  23618870.6694   -6149762.58747  -4786431.89946  23618869.8434   23618876.4674
      1879.8144       1464.7824
  21732760.0834  -17603479.00548 -13706333.94447  21732759.2524   21732762.3844
      2873.3424       2238.9824
  21558893.7584  -13752881.16248 -10706570.53347  21558893.7334   21558893.7034
     -2585.3614      -2014.5634
  21627057.2874  -12348616.99448  -9615814.74047  21627057.6774   21627059.0304
      -503.8914       -392.6414
 06  6 28 20  1 30.0000000  0  8G14G30G 6G 1G 7G16G22G25
  21696827.8694  -15440240.63848 -11991986.19147  21696827.5864   21696828.4964
        37.3624         29.1234
  23221419.3694  -11843184.73147  -9225965.24946  23221419.6004   23221421.4634
     -3050.2954      -2376.8564
  24214187.5914   -6043771.79747  -4694118.67946  24214187.6304   24214192.9554
       589.2924        459.1884
  22078123.2224  -16755806.84248 -13050368.95147  22078122.6044   22078124.9784
      1536.4804       1197.2764
  23608129.7554   -6206205.82847  -4830413.55346  23608129.0194   23608136.3504
      1883.5664       1467.7114
  21716387.1034  -17689517.97848 -13773377.24447  21716386.8844   21716389.7764
      2862.6824       2230.6444
  21573687.3644  -13675138.68848 -10645992.02847  21573687.3794   21573688.2394
     -2597.2964      -2023.8704
  21629942.7134  -12333456.31848  -9604001.22847  21629942.8394   21629944.2094
      -507.0454       -395.1074
 06  6 28 20  2  0.0000000  0  8G14G30G 6G 1G 7G16G22G25
  21696632.8594  -15441267.14248 -11992786.07247  21696632.1924   21696633.6334
        31.2224         24.3074
  23238863.4664  -11751520.20247  -9154538.37846  23238864.4584   23238865.7704
     -3060.5694      -2384.8374
  24210843.7424   -6061331.06647  -4707801.15246  24210844.4084   24210849.8624
       581.6074        453.1964
  22069351.4214  -16801900.55448 -13086286.14547  22069350.5734   22069353.5614
      1536.5704       1197.3374
  23597372.1354   -6262740.56347  -4874466.48346  23597371.9234   23597378.1284
      1886.0084       1469.6094
  21700079.3404  -17775216.19548 -13840155.02147  21700078.2644   21700081.9774
      2850.8194       2221.4204
  21588553.4314  -13597018.04448 -10585118.84547  21588553.3134   21588553.8964
     -2610.3584      -2034.0404
  21632847.6014  -12318187.87248  -9592103.74047  21632848.1874   21632849.8204
      -510.7864       -398.0074
 06  6 28 20  2 30.0000000  0  8G14G30G 6G 1G 7G16G22G25
  21696471.6084  -15442113.21848 -11993445.36547  21696471.2184   21696473.1424
        25.3284         19.7484
  23256361.9034  -11659555.92547  -9082877.95746  23256362.8874   23256364.9334
     -3070.2004      -2392.3994
  24207552.8614   -6078644.11746  -4721291.73946  24207549.6014   24207555.4354
       573.2644        446.6894
  22060578.7204  -16848002.77448 -13122209.94247  22060578.4914   22060580.3914
      1536.9814       1197.6584
  23586597.6714   -6319358.83347  -4918584.53146  23586596.7994   23586602.9894
      1888.9934       1471.9354
  21683837.3194  -17860566.02348 -13906661.32147  21683837.6504   21683840.2954
      2839.3954       2212.5154
  21603491.9174  -13518516.21648 -10523948.63247  21603491.6824   21603492.8884
     -2622.9324      -2043.8624
  21635774.2274  -12302808.32948  -9580119.68047  21635774.6254   21635776.7484
      -514.4204       -400.8684
 06  6 28 20  3  0.0000000  0  8G14G30G 6G 1G 7G16G22G25
  21696344.1534  -15442782.61248 -11993966.98647  21696343.7354   21696345.7094
        18.7224         14.5824
  23273919.3314  -11567300.33847  -9010990.51546  23273918.5214   23273921.2924
     -3080.4954      -2400.3884
  24204302.6194   -6095713.16146  -4734592.22546  24204303.9874   24204308.0154
       564.0204        439.4994
  22051803.0854  -16894117.49348 -13158143.49547  22051803.1024   22051805.6164
      1536.7864       1197.4874
  23575805.9704   -6376064.16347  -4962770.38246  23575805.5864   23575813.5334
      1890.8094       1473.3584
  21667661.1194  -17945569.86048 -13972898.00847  21667660.8504   21667664.3604
      2827.1634       2202.9844
  21618500.9974  -13439640.63448 -10462487.18447  21618501.2494   21618501.9684
     -2635.8144      -2053.8834
  21638721.1504  -12287324.56148  -9568054.40047  21638720.6484   21638722.4624
      -518.3894       -403.9424
 06  6 28 20  3 30.0000000  0  8G14G30G 6G 1G 7G16G22G25
  21696251.2374  -15443271.61848 -11994348.04447  21696250.6994   21696251.8844
        13.2124         10.2854
  23291529.4814  -11474753.61447  -8938876.19646  23291530.1924   23291533.2514
     -3089.8874      -2407.6874
  24201101.2944   -6112535.51147  -4747700.47046  24201103.0934   24201107.2594
       556.3284        433.5054
  22043026.3154  -16940241.01848 -13194083.91047  22043025.9774   22043028.6084
      1537.4124       1197.9874
  23565002.2194   -6432851.72747  -5007020.34146  23565000.7764   23565005.7804
      1893.9964       1475.8374
  21651552.6414  -18030223.09248 -14038861.50747  21651552.9224   21651556.2584
      2815.6564       2194.0064
  21633581.9634  -13360391.01748 -10400734.27347  21633581.5324   21633582.8824
     -2648.0954      -2063.4404
  21641687.6724  -12271735.96748  -9555907.43747  21641687.3584   21641689.2674
      -521.6354       -406.4564
 06  6 28 20  4  0.0000000  0  8G14G30G 6G 1G 7G16G22G25
  21696193.0964  -15443577.54248 -11994586.44547  21696193.0524   21696193.6414
         6.6104          5.1524
  23309194.9494  -11381918.54947  -8866537.24946  23309195.5214   23309197.4584
     -3099.5954      -2415.2734
  24197948.1564   -6129108.25247  -4760614.20746  24197948.3464   24197952.4154
       547.7124        426.7824
  22034248.1294  -16986371.20348 -13230029.48047  22034247.4704   22034250.3524
      1537.1994       1197.8244
  23554180.6294   -6489718.76747  -5051332.25846  23554179.5024   23554184.7434
      1896.3924       1477.7064
  21635511.3544  -18114522.42048 -14104549.22947  21635510.8634   21635513.6324
      2803.5864       2184.5914
  21648733.8844  -13280769.41448 -10338691.50747  21648733.1854   21648734.2574
     -2660.5964      -2073.1924
  21644673.1144  -12256043.76748  -9543679.74047  21644673.8394   21644675.5554
      -525.3814       -409.3854
 06  6 28 20  4 30.0000000  0  8G14G30G 6G 1G 7G16G22G25
  21696169.5474  -15443699.11348 -11994681.18547  21696169.8954   21696171.3164
         1.0574           .8344
  23326916.6584  -11288797.54147  -8793975.45846  23326915.9914   23326917.4784
     -3108.6794      -2422.3484
  24194843.1784   -6145429.12647  -4773331.71246  24194840.9964   24194848.7434
       539.8044        420.6254
  22025468.2504  -17032506.99048 -13265979.42847  22025468.3114   22025470.6324
      1538.0334       1198.4814
  23543341.0584   -6546663.45947  -5095704.67646  23543341.3254   23543348.9894
      1899.4444       1480.0814
  21619537.4474  -18198465.42348 -14169959.29847  21619536.7114   21619539.4004
      2792.1044       2175.6794
  21663955.4884  -13200778.25348 -10276360.76847  21663955.9914   21663956.3254
     -2672.4634      -2082.4264
  21647679.2994  -12240249.74548  -9531372.70747  21647678.9874   21647681.3324
      -528.1794       -411.5684
 06  6 28 20  5  0.0000000  0  8G14G30G 6G 1G 7G16G22G25
  21696182.1854  -15443636.25948 -11994632.22647  21696181.5534   21696183.2354
        -5.2584         -4.1054
  23344689.7104  -11195395.24247  -8721194.45946  23344690.5924   23344692.3604
     -3118.1834      -2429.7334
  24191784.7674   -6161497.91247  -4785852.75646  24191785.2954   24191791.0864
       531.0584        413.8074
  22016687.9484  -17078648.76348 -13301934.06247  22016687.8754   22016689.9154
      1538.0154       1198.4564
  23532492.0914   -6603684.97847  -5140136.94146  23532491.5024   23532498.7224
      1901.6644       1481.8134
  21603631.6144  -18282051.53848 -14235091.27547  21603631.1704   21603633.5624
      2780.0364       2166.2874
  21679246.3804  -13120421.66648 -10213745.28847  21679246.8084   21679247.5774
     -2684.9054      -2092.1344
  21650702.3144  -12224357.35548  -9518989.02947  21650703.0674   21650705.1314
      -531.6604       -414.2704
 06  6 28 20  5 30.0000000  0  8G14G30G 6G 1G 7G16G22G25
  21696229.7134  -15443386.37648 -11994437.51447  21696228.9814   21696230.6494
       -10.9404         -8.5184
  23362516.7664  -11101713.09147  -8648195.43546  23362517.5514   23362520.2534
     -3126.6874      -2436.3494
  24188777.1444   -6177311.59647  -4798175.01846  24188777.1804   24188781.8274
       523.3254        407.7844
  22007906.7704  -17124793.77448 -13337891.18947  22007906.4074   22007909.2674
      1538.6324       1198.9384
  23521628.3754   -6660780.08947  -5184626.56546  23521627.1094   23521632.5384
      1904.6204       1484.1124
  21587794.1584  -18365276.72948 -14299942.00847  21587793.9684   21587796.4404
      2768.6464       2157.3794
  21694607.0794  -13039700.49248 -10150845.71547  21694607.3684   21694609.0774
     -2696.1614      -2100.9224
  21653746.0414  -12208367.12748  -9506529.10647  21653745.9004   21653747.6604
      -534.1614       -416.2224
 06  6 28 20  6  0.0000000  0  8G14G30G 6G 1G 7G16G22G25
  21696312.6494  -15442946.39748 -11994094.69447  21696312.5064   21696313.9104
       -17.7164        -13.7874
  23380397.6634  -11007752.75747  -8574979.61146  23380397.3134   23380397.8884
     -3136.5294      -2444.0574
  24185815.7534   -6192866.32747  -4810295.52646  24185815.7064   24185819.9834
       514.6774        401.0454
  21999125.6264  -17170939.57148 -13373848.95547  21999126.0514   21999128.1024
      1538.2934       1198.6624
  23510748.7304   -6717945.26447  -5229170.77746  23510749.5244   23510754.7884
      1906.8944       1485.8934
  21572025.6794  -18448137.42748 -14364508.71847  21572025.5794   21572029.0624
      2755.8904       2147.4584
  21710037.4514  -12958616.19348 -10087663.18647  21710037.4074   21710037.8904
     -2708.7884      -2110.7404
  21656807.6514  -12192279.62948  -9493993.38147  21656807.2404   21656809.3854
      -537.8864       -419.1424
 06  6 28 20  6 30.0000000  0  8G14G30G 6G 1G 7G16G22G25
  21696433.4594  -15442315.74948 -11993603.29847  21696432.6054   21696434.2584
       -24.2414        -18.9004
  23398329.4404  -10913518.28747  -8501550.19546  23398329.4434   23398334.1734
     -3145.7954      -2451.2434
  24182905.3654   -6208161.94847  -4822214.11946  24182904.2454   24182909.4014
       505.5474        393.9244
  21990343.9014  -17217085.61448 -13409806.89247  21990344.1184   21990346.5794
      1538.1134       1198.5204
  23499856.1894   -6775179.20747  -5273768.55446  23499856.4254   23499861.9014
      1908.7064       1487.2994
  21556328.2894  -18530631.96548 -14428790.11547  21556327.7284   21556329.8404
      2743.4384       2137.7314
  21725535.7024  -12877171.66948 -10024199.95547  21725535.8054   21725536.7264
     -2721.0194      -2120.3014
  21659886.3774  -12176097.40548  -9481383.84147  21659886.7354   21659888.9814
      -541.2134       -421.7274
 06  6 28 20  7  0.0000000  0  8G14G30G 6G 1G 7G16G22G25
  21696589.8534  -15441491.87348 -11992961.32747  21696589.3464   21696591.1184
       -30.9394        -24.1104
  23416312.7464  -10819010.96947  -8427908.19646  23416313.4984   23416317.3234
     -3154.9464      -2458.4024
  24180042.6544   -6223195.41447  -4833928.43746  24180043.9074   24180049.4764
       496.6314        386.9864
  21981563.3274  -17263229.34148 -13445763.02147  21981562.6674   21981565.9804
      1537.8594       1198.3304
  23488953.2504   -6832478.56747  -5318417.31546  23488951.1414   23488958.1334
      1910.9694       1489.0584
  21540699.6494  -18612757.04148 -14492783.61247  21540699.6644   21540702.3564
      2731.1594       2128.1524
  21741102.0954  -12795368.43348  -9960457.22647  21741102.7444   21741103.4894
     -2732.8504      -2129.4994
  21662984.3194  -12159821.20648  -9468701.06947  21662984.0364   21662986.2744
      -544.4114       -424.2144
 06  6 28 20  7 30.0000000  0  8G14G30G 6G 1G 7G16G22G25
  21696783.0024  -15440475.26448 -11992169.17347  21696782.7554   21696784.6304
       -37.2994        -29.0564
  23434348.2754  -10724236.02647  -8354057.61746  23434349.9344   23434349.8664
     -3163.7384      -2465.2244
  24177232.8704   -6237965.64147  -4845437.60646  24177232.3704   24177237.7344
       488.0554        380.3064
  21972782.1564  -17309371.41348 -13481717.87547  21972783.0934   21972785.1524
      1537.8424       1198.3284
  23478037.5094   -6889843.35047  -5363117.08346  23478037.0204   23478043.3054
      1913.1484       1490.7634
  21525142.3094  -18694512.19148 -14556488.86847  21525141.9004   21525144.9514
      2718.8354       2118.5624
  21756736.3674  -12713210.66848  -9896438.22847  21756736.4054   21756737.6924
     -2744.5684      -2138.6354
  21666098.8604  -12143454.74348  -9455947.96947  21666098.4944   21666100.3104
      -547.3404       -426.5004
 06  6 28 20  8  0.0000000  0  8G14G30G 6G 1G 7G16G22G25
  21697014.2024  -15439262.17148 -11991223.92147  21697014.0414   21697015.6634
       -43.7034        -34.0704
  23452435.1184  -10629193.89047  -8279998.83446  23452434.9124   23452436.6384
     -3172.5544      -2472.1194
  24174473.4604   -6252470.66746  -4856740.14546  24174471.6534   24174477.7214
       479.2854        373.4744
  21964004.0024  -17355508.76748 -13517669.04447  21964003.3864   21964005.6004
      1537.8144       1198.2964
  23467109.5724   -6947269.48547  -5407864.68146  23467110.7984   23467116.0034
      1915.2454       1492.3924
  21509655.6994  -18775893.01348 -14619902.44647  21509654.9654   21509658.6704
      2706.4344       2108.8924
  21772437.9394  -12630699.14748  -9832143.58347  21772438.0744   21772439.1134
     -2756.2434      -2147.7104
  21669230.3134  -12126997.97748  -9443124.50247  21669230.1204   21669231.9204
      -550.1494       -428.6974
 06  6 28 20  8 30.0000000  0  8G14G30G 6G 1G 7G16G22G25
  21697282.5154  -15437851.42548 -11990124.65147  21697282.4094   21697283.8224
       -49.7734        -38.8134
  23470570.3404  -10533888.66747  -8205735.07146  23470571.1244   23470573.3694
     -3180.7504      -2478.4954
  24171762.4994   -6266708.28646  -4867834.31546  24171764.3384   24171766.0414
       470.4304        366.5634
  21955224.6094  -17401640.18948 -13553615.62247  21955224.7384   21955227.5004
      1538.1714       1198.5604
  23456168.7734   -7004754.77947  -5452658.33546  23456168.9144   23456176.3714
      1917.6664       1494.2764
  21494241.2454  -18856897.65848 -14683022.89547  21494241.4374   21494243.2974
      2694.4674       2099.5654
  21788206.3734  -12547836.40648  -9767575.25247  21788205.7424   21788206.8494
     -2767.3574      -2156.3974
  21672378.7034  -12110452.93048  -9430232.25347  21672377.9844   21672380.2604
      -552.4364       -430.4974
 06  6 28 20  9  0.0000000  0  8G14G30G 6G 1G 7G16G22G25
  21697588.9084  -15436239.46448 -11988868.59547  21697588.7054   21697590.8854
       -56.7284        -44.2314
  23488757.2804  -10438320.01247  -8131266.03246  23488756.7984   23488759.6024
     -3189.7244      -2485.5234
  24169107.2064   -6280673.55446  -4878716.25946  24169106.7604   24169110.9204
       461.6174        359.7084
  21946447.5724  -17447762.16448 -13589554.78847  21946447.3254   21946449.9204
      1537.6824       1198.1914
  23445221.2324   -7062295.20847  -5497494.95446  23445219.3864   23445225.7624
      1919.4844       1495.7074
  21478898.6334  -18937521.51648 -14745846.63547  21478899.1604   21478900.9914
      2681.4674       2089.4434
  21804040.8664  -12464623.43548  -9702734.03247  21804040.7094   21804042.4974
     -2779.2234      -2165.6334
  21675543.7054  -12093819.29048  -9417270.96247  21675543.9954   21675544.8294
      -555.5574       -432.9114
 06  6 28 20  9 30.0000000  0  8G14G30G 6G 1G 7G16G22G25
  21697933.5974  -15434432.45448 -11987460.54847  21697932.8064   21697934.7454
       -63.7594        -49.6804
  23506990.5674  -10342499.36947  -8056600.61646  23506990.4504   23506992.4284
     -3198.4114      -2492.2744
  24166497.7324   -6294373.23347  -4889391.29446  24166498.7624   24166502.7364
       452.1284        352.3044
  21937672.3264  -17493881.06248 -13625491.56347  21937671.9714   21937674.4324
      1536.9374       1197.6064
  23434260.6674   -7119896.05947  -5542378.64846  23434259.4314   23434266.4174
      1920.8714       1496.7854
  21463628.4554  -19017769.91248 -14808377.80447  21463628.2634   21463630.5774
      2668.5714       2079.4184
  21819940.4584  -12381070.27948  -9637627.72547  21819940.4754   21819942.7814
     -2791.0064      -2174.8334
  21678723.8724  -12077106.49448  -9404247.99947  21678724.2064   21678725.5804
      -558.7974       -435.4264
 06  6 28 20 10  0.0000000  0  8G14G30G 6G 1G 7G16G22G25
  21698316.5184  -15432418.91948 -11985891.58347  21698316.0574   21698317.7064
       -70.6374        -55.0314
  23525273.5354  -10246419.32247  -7981733.08446  23525274.3944   23525277.8734
     -3206.9464      -2498.9104
  24163945.7924   -6307795.85647  -4899850.40146  24163945.6934   24163949.5394
       442.3444        344.6864
  21928898.6984  -17539985.79948 -13661417.32147  21928897.8614   21928900.4494
      1536.7564       1197.4864
  23423290.8784   -7177545.42947  -5587300.14046  23423289.0634   23423294.2704
      1922.2794       1497.8734
  21448431.0914  -19097630.97448 -14870607.14347  21448430.8854   21448433.6864
      2655.6694       2069.3274
  21835906.8704  -12297169.08348  -9572250.22147  21835906.1374   21835907.3834
     -2802.3554      -2183.6394
  21681920.8784  -12060306.63848  -9391157.19147  21681921.3204   21681923.0234
      -561.5004       -437.5494
 06  6 28 20 10 30.0000000  0  8G14G30G 6G 1G 7G16G22G25
  21698738.4994  -15430201.67648 -11984163.88347  21698737.4424   21698740.1594
       -77.2074        -60.1724
  23543605.0634  -10150087.80347  -7906669.62046  23543605.4704   23543607.9164
     -3215.1754      -2505.2974
  24161443.2004   -6320943.28347  -4910095.08346  24161442.4004   24161447.0874
       434.1844        338.3324
  21920127.4074  -17586079.05348 -13697334.12947  21920127.2794   21920129.0844
      1536.1564       1196.9904
  23412308.5904   -7235245.40447  -5632261.02746  23412308.3544   23412314.5664
      1923.9814       1499.2104
  21433307.0834  -19177106.54848 -14932536.11147  21433307.0594   21433309.8164
      2642.7974       2059.3074
  21851937.8384  -12212926.74648  -9506606.89647  21851937.3104   21851938.2584
     -2813.7454      -2192.5394
  21685133.5194  -12043425.55648  -9378003.07947  21685133.6174   21685134.7634
      -564.1434       -439.5674
 06  6 28 20 11  0.0000000  0  8G14G30G 6G 1G 7G16G22G25
  21699199.2704  -15427779.80048 -11982276.73047  21699199.1104   21699200.6144
       -84.9774        -66.2104
  23561983.3464  -10053507.68447  -7831412.39846  23561983.8864   23561988.1524
     -3224.4404      -2512.5594
  24158992.0574   -6333814.19947  -4920124.29946  24158993.8614   24158999.1704
       423.5144        330.0034
  21911357.5494  -17632160.18848 -13733241.49647  21911358.2684   21911360.4664
      1534.9524       1196.0554
  23401320.1924   -7292994.04147  -5677259.87846  23401318.9504   23401323.6504
      1924.6834       1499.7294
  21418258.1034  -19256194.67848 -14994163.16747  21418257.6844   21418260.0604
      2628.7884       2048.3894
  21868032.8924  -12128346.47948  -9440700.24447  21868032.7434   21868033.2294
     -2825.8594      -2201.9804
  21688360.6424  -12026465.66248  -9364787.55647  21688360.7494   21688362.8524
      -567.6444       -442.3054
 06  6 28 20 11 30.0000000  0  8G14G30G 6G 1G 7G16G22G25
  21699700.2254  -15425148.32848 -11980226.24847  21699699.6864   21699700.6164
       -91.2684        -71.1194
  23580409.9434   -9956678.80747  -7755961.37646  23580409.8834   23580413.0474
     -3231.8364      -2518.3094
  24156597.5874   -6346404.66447  -4929934.96146  24156597.7154   24156602.6674
       414.7504        323.1794
  21902592.0104  -17678224.53748 -13769135.79147  21902592.1064   21902594.4354
      1535.1634       1196.2204
  23390323.4424   -7350786.28247  -5722292.75346  23390321.8854   23390329.2124
      1926.8674       1501.4554
  21403281.8754  -19334889.91648 -15055484.07247  21403282.0364   21403285.1854
      2616.5674       2038.8724
  21884192.1794  -12043427.83248  -9374529.92647  21884192.8184   21884193.0784
     -2836.4144      -2210.1874
  21691603.4534  -12009425.36248  -9351509.39047  21691603.5394   21691605.1914
      -569.5774       -443.8244
 06  6 28 20 12  0.0000000  0  8G14G30G 6G 1G 7G16G22G25
  21700240.2004  -15422309.38248 -11978014.10547  21700240.4924   21700240.8744
       -99.2464        -77.3394
  23598881.4124   -9859607.10147  -7680321.11246  23598883.2594   23598886.5974
     -3240.9564      -2525.4384
  24154254.6314   -6358715.43647  -4939527.70246  24154254.3104   24154259.8814
       404.4894        315.1754
  21893829.4264  -17724273.93748 -13805018.42047  21893829.6814   21893832.1364
      1533.5154       1194.9504
  23379316.3804   -7408623.04247  -5767360.24646  23379316.8044   23379322.9624
      1927.1604       1501.6784
  21388381.3424  -19413193.13348 -15116499.50747  21388381.0204   21388383.5614
      2602.3534       2027.8184
  21900414.4414  -11958176.53048  -9308100.38047  21900414.8894   21900415.9244
     -2848.3644      -2219.4884
  21694860.8494  -11992309.76148  -9338172.54347  21694860.2074   21694862.0594
      -573.0704       -446.5634
 06  6 28 20 12 30.0000000  0  8G14G30G 6G 1G 7G16G22G25
  21700821.3784  -15419257.99748 -11975636.41947  21700820.5794   21700821.9214
      -105.3394        -82.0824
  23617399.3474   -9762292.44847  -7604491.56146  23617399.8054   23617402.5024
     -3248.0154      -2530.9004
  24151966.3294   -6370741.49447  -4948898.58546  24151966.1554   24151969.7364
       396.1364        308.6744
  21885070.4674  -17770303.67348 -13840885.74447  21885069.9484   21885072.4674
      1533.9354       1195.2704
  23368303.5724   -7466498.74147  -5812458.06046  23368302.5634   23368309.2804
      1929.7294       1503.6804
  21373556.9914  -19491099.24548 -15177205.52847  21373556.3224   21373558.9434
      2590.2014       2018.3244
  21916700.8064  -11872591.58148  -9241410.85347  21916700.8054   21916701.8714
     -2858.4714      -2227.3894
  21698132.0644  -11975117.24548  -9324775.76247  21698131.7014   21698133.4494
      -574.5684       -447.7164
 06  6 28 20 13  0.0000000  0  8G14G30G 6G 1G 7G16G22G25
  21701441.2374  -15415997.34348 -11973095.66147  21701441.3414   21701442.7024
      -112.0424        -87.3114
  23635963.1274   -9664742.37747  -7528478.53346  23635963.3894   23635964.7144
     -3255.6014      -2536.8334
  24149729.4094   -6382486.65347  -4958050.58546  24149728.2424   24149735.9994
       386.8424        301.4364
  21876314.6804  -17816317.00548 -13876740.28847  21876313.8484   21876316.6254
      1533.5734       1194.9914
  23357281.4284   -7524415.72747  -5857588.03046  23357280.5094   23357286.5714
      1931.3274       1504.9144
  21358806.5544  -19568610.74548 -15237604.05647  21358806.1774   21358808.6044
      2577.2574       2008.2504
  21933049.8794  -11786680.45348  -9174467.17447  21933050.1624   21933050.3564
     -2868.9404      -2235.5224
  21701416.8644  -11957854.34448  -9311324.14247  21701416.4934   21701419.1834
      -576.6634       -449.3544
 06  6 28 20 13 30.0000000  0  8G14G30G 6G 1G 7G16G22G25
  21702103.2724  -15412519.43248 -11970385.60147  21702103.1394   21702104.3174
      -119.1964        -92.8724
  23654572.1954   -9566953.60547  -7452279.54146  23654573.1844   23654575.7794
     -3263.3664      -2542.8904
  24147550.6134   -6393942.12347  -4966976.84846  24147549.3894   24147556.2094
       377.6654        294.2734
  21867562.3804  -17862306.15248 -13912575.97347  21867562.1464   21867565.1564
      1532.9784       1194.5314
  23346254.6784   -7582365.66347  -5902743.75946  23346254.3164   23346258.3034
      1932.5924       1505.9164
  21344133.6684  -19645718.71848 -15297688.14247  21344132.9584   21344135.3644
      2563.9434       1997.8804
  21949461.4594  -11700439.31448  -9107266.31947  21949461.0994   21949462.6064
     -2879.7604      -2243.9644
  21704716.0164  -11940516.58748  -9297814.18047  21704716.3514   21704717.9054
      -578.8744       -451.1024
 06  6 28 20 14  0.0000000  0  8G14G30G 6G 1G 7G16G22G25
  21702805.9164  -15408827.17748 -11967508.51747  21702806.3004   21702807.2454
      -126.7554        -98.7754
  23673225.7394   -9468933.26247  -7375900.08746  23673227.1634   23673225.8674
     -3271.1474      -2548.9634
  24145426.6014   -6405110.81147  -4975679.66846  24145426.9644   24145430.7194
       367.5634        286.4084
  21858815.1044  -17908273.97048 -13948395.03647  21858815.8404   21858817.7354
      1531.9104       1193.6994
  23335219.6484   -7640350.57247  -5947926.74146  23335218.6484   23335226.0574
      1933.3534       1506.4994
  21329536.3074  -19722425.39148 -15357459.52547  21329535.9054   21329538.5694
      2549.9884       1987.0034
  21965933.3724  -11613875.39548  -9039813.96347  21965933.6794   21965934.5184
     -2890.9084      -2252.6344
  21708028.5114  -11923109.73048  -9284250.38947  21708028.4394   21708030.8734
      -581.5844       -453.1904
 06  6 28 20 14 30.0000000  0  8G14G30G 6G 1G 7G16G22G25
  21703550.2424  -15404913.50948 -11964458.90747  21703550.4144   21703552.0034
      -133.7314       -104.1854
  23691923.0414   -9370678.40547  -7299337.91146  23691923.1814   23691925.3834
     -3278.4974      -2554.6604
  24143354.6614   -6415985.47947  -4984153.38846  24143355.2164   24143361.4814
       358.1294        279.0574
  21850073.0734  -17954213.21848 -13984191.83847  21850073.0574   21850075.7504
      1531.2264       1193.1594
  23324180.4394   -7698362.43447  -5993130.65246  23324179.5664   23324186.3404
      1934.6334       1507.4974
  21315018.0614  -19798722.66948 -15416911.90147  21315017.6574   21315019.9274
      2536.7954       1976.7264
  21982468.3404  -11526985.67748  -8972107.74447  21982468.4314   21982468.9664
     -2901.2624      -2260.7344
  21711354.9734  -11905630.08648  -9270629.88547  21711355.1054   21711357.0044
      -583.6264       -454.7754
 06  6 28 20 15  0.0000000  0  8G14G30G 6G 1G 7G16G22G25
  21704336.9044  -15400784.45148 -11961241.45947  21704336.2394   21704337.5734
      -141.6924       -110.4154
  23710661.9894   -9272199.92747  -7222601.46446  23710662.6584   23710664.7914
     -3286.6524      -2561.0164
  24141341.7874   -6426571.70547  -4992402.30646  24141341.4594   24141347.4194
       347.5844        270.8374
  21841335.8144  -18000130.01448 -14019971.15047  21841335.5114   21841338.5064
      1529.6874       1191.9654
  23313135.4764   -7756406.48847  -6038359.67446  23313135.2104   23313140.3734
      1934.8834       1507.7054
  21300575.4434  -19874616.27348 -15476049.71947  21300574.8834   21300578.0274
      2522.7734       1965.8154
  21999062.9814  -11439779.93748  -8904155.27747  21999063.1974   21999064.0404
     -2912.6684      -2269.5994
  21714693.3444  -11888086.75048  -9256959.75047  21714693.6064   21714695.1154
      -586.4124       -456.9504
 06  6 28 20 15 30.0000000  0  8G14G30G 6G 1G 7G16G22G25
  21705163.8694  -15396434.68048 -11957852.03247  21705164.0704   21705165.0454
      -149.2754       -116.3174
  23729443.9484   -9173496.82047  -7145689.97446  23729445.3734   23729446.4924
     -3294.3384      -2567.0054
  24139383.4114   -6436863.70047  -5000421.99046  24139383.2544   24139388.9784
       337.5414        263.0074
  21832603.8854  -18046019.08748 -14055728.86047  21832603.2744   21832605.1244
      1528.6744       1191.1674
  23302084.5944   -7814476.82647  -6083609.18546  23302083.8224   23302090.0274
      1935.5174       1508.1964
  21286211.0144  -19950100.26248 -15534868.35747  21286210.9554   21286213.5754
      2508.7984       1954.9144
  22015718.3444  -11352257.13448  -8835955.73447  22015718.4194   22015719.0824
     -2923.2934      -2277.8874
  21718044.1194  -11870477.64648  -9243238.37147  21718043.7924   21718046.0614
      -588.6764       -458.7234
 06  6 28 20 16  0.0000000  0  8G14G30G 6G 1G 7G16G22G25
  21706034.5104  -15391862.61348 -11954289.39347  21706033.9294   21706034.8344
      -156.4214       -121.8934
  23748271.0444   -9074571.95047  -7068605.71346  23748269.9424   23748273.3974
     -3301.4974      -2572.5954
  24137481.5774   -6446860.26047  -5008211.46646  24137481.1924   24137485.6454
       327.8244        255.4444
  21823876.9154  -18091879.06348 -14091463.92047  21823876.4004   21823878.6794
      1527.8414       1190.5064
  23291029.1984   -7872571.04547  -6128877.30746  23291029.5014   23291035.3064
      1936.3424       1508.8354
  21271925.2414  -20025172.39648 -15593366.07347  21271925.3494   21271927.3944
      2495.2014       1944.3024
  22032433.0184  -11264419.93048  -8767511.22547  22032433.4964   22032433.3274
     -2933.4264      -2285.7804
  21721407.3314  -11852804.59848  -9229467.16347  21721407.0084   21721409.0264
      -590.5074       -460.1314
 06  6 28 20 16 30.0000000  0  8G14G30G 6G 1G 7G16G22G25
  21706947.2004  -15387066.09548 -11950551.85747  21706947.5814   21706948.4064
      -163.9374       -127.7504
  23767137.3974   -8975427.15847  -6991350.03346  23767137.7334   23767138.9894
     -3308.6984      -2578.2084
  24135635.9194   -6456558.24947  -5015768.27046  24135636.1344   24135639.7804
       318.0604        247.8334
  21815155.5124  -18137707.47448 -14127174.36147  21815155.3384   21815157.2954
      1526.7804       1189.6764
  23279969.4894   -7930686.09047  -6174161.63846  23279970.3044   23279976.6294
      1937.2784       1509.5684
  21257719.0564  -20099829.51348 -15651540.39847  21257718.2254   21257720.5244
      2481.3664       1933.5104
  22049207.9494  -11176270.12048  -8698823.11847  22049207.1594   22049208.6824
     -2943.7384      -2293.8294
  21724782.3014  -11835068.33048  -9215646.69247  21724782.1284   21724783.8144
      -592.6584       -461.8204
 06  6 28 20 17  0.0000000  0  8G14G30G 6G 1G 7G16G22G25
  21707902.8774  -15382044.31248 -11946638.78747  21707902.0704   21707903.5264
      -171.2094       -133.4254
  23786044.0484   -8876066.66547  -6913926.32046  23786045.5124   23786047.1904
     -3315.3524      -2583.3994
  24133846.5464   -6465957.83747  -5023092.58046  24133847.3044   24133851.3084
       308.3594        240.2784
  21806440.9914  -18183503.65048 -14162859.67947  21806440.9104   21806443.6054
      1525.9094       1189.0224
  23268908.4724   -7988820.51847  -6219461.11446  23268907.3254   23268914.0324
      1938.1204       1510.2224
  21243591.1654  -20174070.52648 -15709390.49647  21243591.3154   21243593.1194
      2467.8814       1923.0274
  22066040.3974  -11087811.31348  -8629894.22547  22066040.0894   22066040.5934
     -2953.6874      -2301.5524
  21728169.2844  -11817271.58648  -9201779.08747  21728168.8464   21728170.2214
      -594.2994       -463.0814
 06  6 28 20 17 30.0000000  0  8G14G30G 6G 1G 7G16G22G25
  21708901.3784  -15376795.45548 -11942548.77747  21708901.0434   21708902.9014
      -178.3794       -139.0004
  23804993.5234   -8776492.36047  -6836336.01446  23804993.1474   23804995.6434
     -3322.2074      -2588.7194
  24132115.1164   -6475056.11347  -5030182.12846  24132115.3204   24132120.2324
       298.9054        232.9104
  21797732.9744  -18229265.36748 -14198518.13847  21797732.7054   21797734.6014
      1525.1474       1188.4154
  23257843.1754   -8046971.32347  -6264773.31946  23257842.4344   23257847.1694
      1939.2304       1511.0924
  21229542.4144  -20247892.85948 -15766914.34147  21229542.7374   21229545.3964
      2454.2064       1912.3604
  22082932.3834  -10999045.48648  -8560726.10747  22082932.2844   22082933.4504
     -2963.6064      -2309.2994
  21731566.6864  -11799415.30948  -9187865.09647  21731566.8424   21731569.1214
      -595.8874       -464.3254
 06  6 28 20 18  0.0000000  0  8G14G30G 6G 1G 7G16G22G25
  21709943.0044  -15371317.89048 -11938280.56047  21709942.9624   21709945.3364
      -185.9944       -144.9374
  23823981.3994   -8676707.36547  -6758581.48446  23823981.4074   23823982.6494
     -3329.2344      -2594.2114
  24130440.5374   -6483852.07547  -5037036.06346  24130441.7014   24130447.5104
       288.5644        224.8494
  21789031.3664  -18274991.05548 -14234148.51747  21789031.4684   21789033.7634
      1523.9714       1187.5054
  23246774.3754   -8105136.31647  -6310096.54646  23246772.7904   23246778.6074
      1939.5154       1511.3004
  21215575.0134  -20321294.19548 -15824110.14347  21215575.2464   21215577.7354
      2440.1044       1901.3794
  22099882.2314  -10909975.36048  -8491320.88247  22099881.3384   22099883.3924
     -2973.4394      -2316.9714
  21734976.1284  -11781501.01148  -9173905.89047  21734976.3044   21734977.7824
      -597.7174       -465.7464
 06  6 28 20 18 30.0000000  0  8G14G30G 6G 1G 7G16G22G25
  21711029.2244  -15365609.47448 -11933832.44447  21711029.6874   21711031.0634
      -194.3614       -151.4424
  23843009.1084   -8576714.26447  -6680664.82546  23843008.8064   23843010.4804
     -3336.7444      -2600.0604
  24128826.4104   -6492342.93947  -5043652.28246  24128825.6924   24128830.6884
       277.7434        216.4274
  21780337.1764  -18320678.85148 -14269749.38647  21780337.1894   21780339.1884
      1522.1464       1186.0884
  23235703.0384   -8163312.74847  -6355428.69946  23235702.7254   23235706.6004
      1939.1354       1511.0144
  21201687.8624  -20394272.07448 -15880975.97347  21201687.2804   21201689.9804
      2425.3834       1889.9134
  22116888.8654  -10820603.23848  -8421680.32347  22116888.2904   22116889.4754
     -2984.1734      -2325.3194
  21738395.7084  -11763530.08948  -9159902.55047  21738396.4294   21738397.2044
      -600.1674       -467.6744
 06  6 28 20 19  0.0000000  0  8G14G30G 6G 1G 7G16G22G25
  21712160.5984  -15359669.96548 -11929204.26647  21712160.3594   21712161.5844
      -201.7084       -157.1564
  23862075.3244   -8476516.69647  -6602588.86046  23862076.1634   23862078.8604
     -3343.1394      -2605.0294
  24127267.8224   -6500528.71247  -5050030.75946  24127267.0894   24127271.2494
       267.7234        208.6224
  21771650.1084  -18366328.24748 -14305320.31947  21771650.4224   21771652.3144
      1521.1024       1185.2894
  23224630.5734   -8221499.11847  -6400768.64146  23224630.0074   23224636.0794
      1939.9204       1511.6244
  21187881.6694  -20466824.94548 -15937510.63347  21187881.9074   21187883.8614
      2411.5174       1879.1374
  22133952.6854  -10730932.45048  -8351807.03547  22133952.5224   22133953.9604
     -2993.6744      -2332.7324
  21741825.8654  -11745505.11748  -9145857.11247  21741825.6534   21741827.3724
      -601.6984       -468.8434
 06  6 28 20 19 30.0000000  0  8G14G30G 6G 1G 7G16G22G25
  21713334.9024  -15353494.10548 -11924391.92147  21713335.0114   21713337.2504
      -209.6124       -163.3224
  23881181.7204   -8376113.47247  -6524352.60746  23881181.8634   23881183.6804
     -3350.0434      -2610.3884
  24125770.9784   -6508403.56547  -5056166.96546  24125770.6804   24125774.7664
       257.6304        200.7464
  21762971.8154  -18411933.89648 -14340857.17247  21762971.9894   21762973.6364
      1519.6864       1184.1744
  23213557.2044   -8279689.52247  -6446111.67046  23213555.5224   23213562.5774
      1939.9414       1511.6474
  21174157.5004  -20538947.31248 -15993709.82447  21174156.8634   21174159.2244
      2397.2624       1868.0024
  22151072.9774  -10640961.89448  -8281700.17747  22151073.4304   22151074.4004
     -3003.6684      -2340.5044
  21745266.9764  -11727423.94348  -9131767.88147  21745266.3704   21745268.2034
      -603.3714       -470.1634
 06  6 28 20 20  0.0000000  0  8G14G30G 6G 1G 7G16G22G25
  21714555.8034  -15347084.03148 -11919397.07247  21714554.7284   21714556.5274
      -217.9454       -169.8274
  23900325.8844   -8275511.64647  -6445961.61746  23900327.2094   23900329.3674
     -3357.2914      -2616.0724
  24124329.6594   -6515969.61447  -5062062.52946  24124330.6894   24124335.4844
       246.7254        192.2514
  21754301.1564  -18457497.84748 -14376361.55447  21754301.7034   21754303.7094
      1517.8724       1182.7624
  23202482.0414   -8337885.03247  -6491458.69046  23202480.6054   23202487.6554
      1939.6464       1511.4184
  21160514.2174  -20610641.18048 -16049575.12747  21160513.8304   21160516.0584
      2382.3454       1856.3754
  22168250.0054  -10550698.25048  -8211364.92947  22168250.2124   22168250.7044
     -3013.9184      -2348.4974
  21748717.3154  -11709291.91448  -9117639.02647  21748716.4694   21748718.7554
      -605.6254       -471.9174
 06  6 28 20 20 30.0000000  0  8G14G30G 6G 1G 7G16G22G25
  21715820.1384  -15340436.19648 -11914216.96147  21715820.6424   21715821.3354
      -225.9924       -176.1014
  23919508.0014   -8174712.36247  -6367416.76046  23919507.0434   23919511.1244
     -3363.7204      -2621.0814
  24122949.5134   -6523223.51947  -5067714.88946  24122949.8904   24122953.7144
       236.3454        184.1544
  21745639.6254  -18503016.45048 -14411830.60047  21745639.6594   21745641.9644
      1516.1354       1181.3974
  23191408.9524   -8396081.60447  -6536806.54346  23191407.4464   23191412.2444
      1939.5444       1511.3384
  21146953.6734  -20681902.38648 -16105103.29347  21146952.9534   21146955.8494
      2367.7084       1844.9684
  22185482.7604  -10460142.09248  -8140801.75647  22185481.8594   22185483.9744
     -3023.7034      -2356.1424
  21752177.2574  -11691108.77048  -9103470.35047  21752177.1124   21752178.7604
      -607.4504       -473.3394
 06  6 28 20 21  0.0000000  0  8G14G30G 6G 1G 7G16G22G25
  21717131.2304  -15333547.75548 -11908849.36047  21717130.6014   21717132.6434
      -233.6734       -182.0754
  23938727.2044   -8073716.59647  -6288718.79846  23938727.2734   23938730.0024
     -3369.8674      -2625.8774
  24121628.9744   -6530162.38247  -5073121.73546  24121629.3784   24121633.9064
       225.7504        175.9064
  21736987.0864  -18548486.59748 -14447261.88247  21736987.0864   21736989.2514
      1514.7754       1180.3324
  23180335.0194   -8454275.24047  -6582152.14846  23180334.5054   23180338.7364
      1939.5924       1511.3504
  21133475.8964  -20752727.28448 -16160291.47947  21133474.9494   21133478.3114
      2353.5854       1833.9484
  22202769.7324  -10369294.53848  -8070011.51547  22202770.4564   22202771.4774
     -3033.1224      -2363.4794
  21755646.3544  -11672874.45048  -9089261.77847  21755646.8544   21755648.8024
      -608.7764       -474.4034
 06  6 28 20 21 30.0000000  0  8G14G30G 6G 1G 7G16G22G25
  21718486.8654  -15326424.02648 -11903298.42447  21718486.3154   21718488.0394
      -241.5124       -188.1984
  23957980.0474   -7972533.90447  -6209875.20246  23957980.8884   23957984.0424
     -3376.2884      -2630.8924
  24120367.8494   -6536791.50247  -5078287.21346  24120367.8094   24120371.3924
       215.3954        167.8264
  21728342.1344  -18593913.30348 -14482659.29247  21728341.7414   21728344.3454
      1513.3384       1179.2264
  23169260.0174   -8512470.48347  -6627498.98446  23169259.8374   23169266.3814
      1939.3634       1511.1794
  21120080.5384  -20823120.64948 -16215143.40347  21120079.9704   21120082.7134
      2339.0764       1822.6524
  22220111.4844  -10278165.36948  -7999001.82947  22220111.4694   22220112.8524
     -3042.3754      -2370.6774
  21759124.6204  -11654597.43848  -9075019.95747  21759125.2834   21759126.7564
      -610.2214       -475.4854
 06  6 28 20 22  0.0000000  0  8G14G30G 6G 1G 7G16G22G25
  21719889.9654  -15319054.98448 -11897556.34147  21719888.6754   21719890.5394
      -249.9284       -194.7424
  23977271.1904   -7871158.69447  -6130881.54546  23977272.4094   23977274.0584
     -3382.6054      -2635.8044
  24119167.6114   -6543100.46347  -5083203.23446  24119168.3244   24119170.0384
       204.7694        159.5504
  21719708.1814  -18639286.32648 -14518014.87047  21719708.2514   21719710.1964
      1511.3444       1177.6744
  23158187.2564   -8570656.06547  -6672838.30446  23158187.3124   23158193.6604
      1939.1114       1511.0014
  21106769.2844  -20893071.69848 -16269650.67147  21106769.5084   21106771.9594
      2324.0354       1810.9574
  22237507.6124  -10186748.26848  -7927767.79647  22237508.2504   22237509.4094
     -3052.1784      -2378.3124
  21762611.9864  -11636270.52148  -9060739.22547  21762612.7694   21762614.1774
      -612.0404       -476.9254
 06  6 28 20 22 30.0000000  0  8G14G30G 6G 1G 7G16G22G25
  21721337.7144  -15311443.18448 -11891625.08147  21721336.9854   21721338.6104
      -258.4324       -201.3884
  23996599.0764   -7769598.54847  -6051743.80546  23996599.8784   23996600.8704
     -3388.8344      -2640.6594
  24118027.2214   -6549091.96047  -5087871.87446  24118026.8604   24118030.0874
       193.6344        150.8854
  21711083.7524  -18684608.52948 -14553330.86547  21711083.5814   21711085.7674
      1509.2404       1176.0234
  23147116.2924   -8628834.09447  -6718171.74346  23147115.8884   23147121.7244
      1938.5174       1510.5304
  21093541.6234  -20962582.98148 -16323815.27247  21093541.5144   21093543.5504
      2309.0114       1799.2274
  22254956.9954  -10095050.47448  -7856315.02747  22254955.8694   22254958.4234
     -3061.8924      -2385.9144
  21766107.9894  -11617899.78248  -9046424.34947  21766107.7874   21766109.9144
      -613.8244       -478.2994
 06  6 28 20 23  0.0000000  0  9G14G30G20G 6G 1G 7G16G22G25
  21722831.2104  -15303597.42248 -11885511.51847  21722830.4944   21722831.1584
      -266.5564       -207.6954
  24015956.1374   -7667865.64847  -5972471.44946  24015956.4634   24015960.5234
     -3394.6754      -2645.2004
  24618579.8344   -4453487.12446  -3409017.80046  24618580.1604   24618582.7244
      3199.7794       2493.3254
  24116946.0524   -6554774.47247  -5092299.74646  24116946.6044   24116947.9554
       183.2444        142.7894
  21702466.6264  -18729887.96448 -14588613.53047  21702466.9524   21702469.1194
      1507.4774       1174.6604
  23136045.2134   -8687012.04147  -6763505.12446  23136044.7964   23136050.1994
      1937.9764       1510.1094
  21080396.1664  -21031662.28348 -16377643.26147  21080395.7004   21080398.9694
      2294.3024       1787.7664
  22272457.6894  -10003084.74148  -7784653.48647  22272458.4744   22272458.0094
     -3071.2134      -2393.1654
  21769609.8654  -11599496.66448  -9032084.25247  21769610.2424   21769611.5584
      -615.0634       -479.2704
 06  6 28 20 23 30.0000000  0  9G14G30G20G 6G 1G 7G16G22G25
  21724372.6264  -15295492.70348 -11879196.16747  21724372.3794   21724373.8214
      -274.2304       -213.6824
  24035354.2124   -7565939.60447  -5893048.61746  24035354.7564   24035355.9524
     -3400.5984      -2649.8274
  24600329.9634   -4549382.04746  -3483741.06246  24600330.2444   24600333.5884
      3192.9744       2488.0264
  24115928.1614   -6560123.36547  -5096467.65446  24115927.4304   24115930.5124
       172.7054        134.5734
  21693863.6974  -18775099.68548 -14623843.42347  21693863.6424   21693865.8394
      1506.0284       1173.5414
  23124978.3274   -8745164.19047  -6808818.38846  23124978.6514   23124982.6384
      1938.1144       1510.2234
  21067338.1614  -21100284.22848 -16431114.86747  21067338.1604   21067339.5614
      2279.9644       1776.5934
  22290013.3864   -9910830.39848  -7712767.05847  22290012.6634   22290015.0464
     -3079.7044      -2399.7614
  21773122.0094  -11581039.29648  -9017701.87147  21773122.6704   21773124.1094
      -615.9004       -479.9074
 06  6 28 20 24  0.0000000  0  9G14G30G20G 6G 1G 7G16G22G25
  21725962.3234  -15287141.08948 -11872688.42747  21725962.1464   21725963.6644
      -281.8734       -219.6274
  24054782.3244   -7463837.23047  -5813488.34146  24054782.8564   24054787.4114
     -3405.7304      -2653.8234
  24582126.1214   -4645058.87446  -3558294.41345  24582123.9614   24582128.5524
      3186.0894       2482.6464
  24114970.6274   -6565150.63847  -5100384.95746  24114971.2654   24114972.0744
       162.3604        126.5094
  21685270.6924  -18820255.51448 -14659029.77347  21685270.5814   21685273.2044
      1504.7364       1172.5174
  23113916.6634   -8803301.41847  -6854120.00546  23113915.4344   23113920.9554
      1938.2494       1510.3054
  21054364.6174  -21168460.60848 -16484239.28747  21054364.6794   21054366.1474
      2265.6254       1765.4294
  22307619.8354   -9818303.41148  -7640668.17847  22307620.8724   22307621.1044
     -3088.2264      -2406.3934
  21776642.1954  -11562542.81348  -9003289.00947  21776642.1654   21776643.7774
      -616.9044       -480.7094
 06  6 28 20 24 30.0000000  0  9G14G30G20G 6G 1G 7G16G22G25
  21727599.2804  -15278538.82048 -11865985.37747  21727598.5714   21727599.4234
      -290.8184       -226.6064
  24074246.3034   -7361558.70247  -5733790.86346  24074246.8094   24074248.1774
     -3411.9064      -2658.6234
  24563958.9854   -4740513.03646  -3632674.32645  24563960.2444   24563963.7804
      3178.3794       2476.6614
  24114076.8034   -6569852.37747  -5104048.59946  24114074.2284   24114079.9104
       151.3404        117.9294
  21676689.1014  -18865351.56748 -14694169.53447  21676689.1624   21676691.3434
      1502.2514       1170.5914
  23102857.5714   -8861419.34947  -6899406.60246  23102855.9404   23102861.2434
      1937.2314       1509.5244
  21041476.6014  -21236187.19548 -16537013.21947  21041476.1224   21041478.5834
      2250.1684       1753.3814
  22325279.5254   -9725504.42348  -7568357.34747  22325278.9504   22325281.2674
     -3097.7174      -2413.7984
  21780168.9434  -11544006.53548  -8988845.14447  21780168.9604   21780171.0064
      -618.5094       -481.9644
 06  6 28 20 25  0.0000000  0  9G14G30G20G 6G 1G 7G16G22G25
  21729283.5784  -15269686.52148 -11859087.50847  21729283.4004   21729284.6204
      -298.9234       -232.9264
  24093741.4314   -7259108.71047  -5653959.73346  24093740.4714   24093742.9824
     -3417.6364      -2663.0974
  24545838.6604   -4835743.99146  -3706880.22446  24545837.4104   24545840.4664
      3170.5934       2470.5894
  24113242.6464   -6574229.30247  -5107459.13146  24113242.8794   24113247.0924
       140.4724        109.4634
  21668119.4244  -18910388.00948 -14729262.86047  21668119.2814   21668121.5164
      1500.4564       1169.2034
  23091801.4154   -8919517.38347  -6944677.68946  23091800.5704   23091805.2444
      1936.3884       1508.8604
  21028673.9174  -21303464.21548 -16589436.84247  21028673.8164   21028676.5224
      2235.1724       1741.6814
  22342989.0944   -9632437.82348  -7495837.98947  22342990.2334   22342991.4374
     -3106.4304      -2420.5884
  21783703.7644  -11525433.81248  -8974372.88847  21783703.6474   21783705.7284
      -619.6754       -482.8494
 06  6 28 20 25 30.0000000  0  9G14G30G20G 6G 1G 7G16G22G25
  21731016.5714  -15260579.04148 -11851990.78347  21731016.2254   21731018.1304
      -307.4174       -239.5164
  24113268.8684   -7156486.97247  -5573994.78346  24113270.1784   24113271.3574
     -3423.0434      -2667.3004
  24527759.2254   -4930745.71346  -3780907.50745  24527759.5824   24527759.9514
      3163.4424       2465.0204
  24112473.2424   -6578275.74447  -5110612.16446  24112474.6804   24112476.7364
       129.7824        101.1324
  21659561.6674  -18955359.64148 -14764305.67247  21659560.8124   21659563.3844
      1498.3274       1167.5124
  23080749.4484   -8977589.49147  -6989928.58246  23080747.3364   23080753.7054
      1935.9414       1508.5224
  21015958.7154  -21370285.79148 -16641505.57347  21015958.0504   21015960.4274
      2220.2444       1730.0584
  22360750.1974   -9539103.22248  -7423109.79147  22360750.5624   22360752.0544
     -3115.0964      -2427.3004
  21787245.6574  -11506822.66248  -8959870.68147  21787245.3324   21787247.1314
      -620.7204       -483.6904
 06  6 28 20 26  0.0000000  0  9G14G30G20G 6G 1G 7G16G22G25
  21732797.8504  -15251218.74348 -11844697.05847  21732797.4984   21732799.2164
      -315.9434       -246.1804
  24132829.5154   -7053699.65847  -5493900.81346  24132830.5444   24132832.8644
     -3428.7524      -2671.7704
  24509725.6564   -5025519.25846  -3854757.08046  24509721.8524   24509725.9944
      3155.4904       2458.8254
  24111764.7664   -6581994.76947  -5113510.05246  24111765.8554   24111768.4004
       118.9634         92.7044
  21651015.2944  -19000268.40248 -14799299.48847  21651015.0774   21651017.4344
      1496.2084       1165.8554
  23069704.4234   -9035637.11047  -7035160.41046  23069702.8774   23069708.8674
      1934.7754       1507.6264
  21003329.1424  -21436654.12748 -16693221.13547  21003329.0614   21003330.7224
      2204.9654       1718.1324
  22378561.7714   -9445506.88348  -7350177.64747  22378561.6164   22378563.4534
     -3123.9634      -2434.2614
  21790793.4944  -11488178.34048  -8945342.62947  21790793.6614   21790794.5994
      -621.9184       -484.6344
 06  6 28 20 26 30.0000000  0  9G14G30G20G 6G 1G 7G16G22G25
  21734628.2284  -15241598.97648 -11837201.14147  21734628.6464   21734630.4744
      -324.6654       -252.9704
  24152420.6224   -6950744.23147  -5413675.88446  24152421.7744   24152425.5274
     -3434.3134      -2676.0784
  24491734.0864   -5120057.18646  -3928422.94846  24491732.4224   24491739.7824
      3147.3664       2452.4934
  24111121.0394   -6585379.35147  -5116147.36746  24111120.8404   24111125.8824
       107.9424         84.1174
  21642483.0554  -19045107.21448 -14834238.80947  21642482.7014   21642485.1594
      1493.8424       1164.0244
  23058664.5924   -9093652.30147  -7080366.96246  23058662.4724   23058669.0614
      1933.6134       1506.7054
  20990787.0204  -21502561.60548 -16744577.57847  20990786.7604   20990788.9924
      2189.7404       1706.2974
  22396422.2034   -9351646.08648  -7277039.43647  22396423.4024   22396423.3124
     -3132.6974      -2441.0394
  21794348.3584  -11469496.86848  -8930785.64247  21794347.9174   21794349.8464
      -622.9954       -485.4294
 06  6 28 20 27  0.0000000  0  9G14G30G20G 6G 1G 7G16G22G25
  21736507.0784  -15231726.87648 -11829508.61047  21736506.4894   21736508.3704
      -332.9264       -259.4254
  24172043.4804   -6847632.63847  -5333329.24846  24172044.7004   24172044.9244
     -3439.2514      -2679.9464
  24473789.1384   -5214366.05746  -4001910.37346  24473788.3644   24473789.8634
      3140.1804       2446.8894
  24110539.4784   -6588436.75547  -5118529.70946  24110538.5414   24110544.6454
        96.6554         75.3044
  21633961.9474  -19089883.49048 -14869129.40347  21633962.0864   21633964.5794
      1491.8834       1162.4944
  23047628.3104   -9151641.61547  -7125553.33646  23047627.6464   23047632.6624
      1932.8204       1506.0734
  20978331.3154  -21568015.65248 -16795580.69347  20978330.9594   20978333.8464
      2174.5414       1694.4484
  22414332.2854   -9257532.62648  -7203704.33247  22414332.8694   22414333.3654
     -3140.8974      -2447.4714
  21797907.7494  -11450788.79748  -8916207.90647  21797908.4864   21797909.9914
      -623.7834       -486.0554
 06  6 28 20 27 30.0000000  0  9G14G30G20G 6G 1G 7G16G22G25
  21738435.7734  -15221594.37548 -11821613.16847  21738434.8014   21738436.9324
      -341.9174       -266.4484
  24191696.8094   -6744360.85347  -5252857.70046  24191695.2144   24191696.9264
     -3444.7914      -2684.2514
  24455887.5734   -5308436.36146  -4075211.97445  24455885.6884   24455889.1484
      3132.1784       2440.6414
  24110019.3604   -6591159.11047  -5120650.98446  24110021.4144   24110026.6194
        85.3154         66.4654
  21625454.7594  -19134588.42448 -14903964.40847  21625454.3374   21625457.2154
      1489.1394       1160.3754
  23036600.6494   -9209595.85647  -7170712.38146  23036601.3544   23036604.1684
      1931.4004       1504.9774
  20965964.1974  -21633007.55548 -16846223.69547  20965963.4234   20965965.9394
      2158.8124       1682.1904
  22432289.9274   -9163162.64148  -7130169.36247  22432289.8004   22432291.7324
     -3149.6834      -2454.3094
  21801474.7134  -11432048.85548  -8901605.34447  21801474.4834   21801475.7224
      -625.1334       -487.0914
 06  6 28 20 28  0.0000000  0  9G14G30G20G 6G 1G 7G16G22G25
  21740413.6904  -15211199.97648 -11813513.65647  21740412.8624   21740414.7534
      -350.5064       -273.1254
  24211376.9544   -6640931.50647  -5172263.49546  24211376.3214   24211380.1714
     -3449.8264      -2688.1684
  24438032.8144   -5402265.22146  -4148325.27546  24438032.0394   24438035.3924
      3124.0314       2434.3014
  24109567.7524   -6593544.61447  -5122509.78246  24109567.0244   24109571.7194
        74.3194         57.9044
  21616962.2524  -19179219.97348 -14938742.23447  21616961.7264   21616963.9684
      1486.8024       1158.5524
  23025579.4474   -9267512.19347  -7215841.90446  23025579.1454   23025583.9404
      1930.2564       1504.1104
  20953684.4074  -21697535.28048 -16896504.99447  20953684.6694   20953686.6044
      2143.4664       1670.2394
  22450295.9064   -9068538.39248  -7056436.24347  22450296.2314   22450297.6114
     -3157.9804      -2460.7744
  21805046.3414  -11413278.26348  -8886978.89547  21805046.0684   21805048.3994
      -625.9804       -487.7684
 06  6 28 20 28 30.0000000  0  9G14G30G20G 6G 1G 7G16G22G25
  21742441.1764  -15200543.27448 -11805209.73847  21742441.3224   21742442.0984
      -359.5654       -280.1854
  24231090.1584   -6537348.40547  -5091549.41746  24231088.5054   24231087.4714
     -3455.4894      -2692.6004
  24420222.1244   -5495851.54846  -4221249.63946  24420222.8334   24420227.9914
      3116.1414       2428.1624
  24109176.1034   -6595593.05447  -5124105.92646  24109176.2324   24109182.6294
        62.8664         48.9924
  21608483.2834  -19223777.45748 -14973462.34247  21608483.0354   21608485.3054
      1484.0874       1156.4154
  23014564.7494   -9325389.22447  -7260940.78346  23014564.1134   23014570.2154
      1928.5444       1502.7634
  20941494.1684  -21761598.07448 -16946424.01547  20941493.6164   20941495.9364
      2127.7654       1657.9984
  22468349.6204   -8973663.72248  -6982508.01047  22468349.5904   22468352.3044
     -3166.4504      -2467.3704
  21808623.5904  -11394479.40548  -8872330.43747  21808623.9094   21808625.7324
      -627.1214       -488.6594
 06  6 28 20 29  0.0000000  0  9G14G30G20G 6G 1G 7G16G22G25
  21744519.5074  -15189624.48748 -11796701.60547  21744518.4504   21744519.9834
      -368.6174       -287.2254
  24250827.8974   -6433616.52547  -5010719.39446  24250826.4834   24250830.8724
     -3460.0124      -2696.1154
  24402461.4444   -5589194.49346  -4293984.42045  24402460.4864   24402463.4554
      3107.1864       2421.1934
  24108851.2154   -6597304.77847  -5125439.69646  24108851.1134   24108857.4034
        51.4474         40.0794
  21600018.6434  -19268260.82048 -15008124.68247  21600018.1924   21600019.9634
      1481.3454       1154.2914
  23003559.0774   -9383226.44447  -7306008.62046  23003558.8084   23003563.4834
      1926.9764       1501.5374
  20929391.6164  -21825195.90848 -16995980.73047  20929391.5834   20929393.7234
      2112.0194       1645.7324
  22486450.6224   -8878543.13847  -6908388.16747  22486450.0894   22486453.1014
     -3175.0264      -2474.0574
  21812206.6954  -11375655.59248  -8857662.52247  21812206.3984   21812207.4784
      -628.0764       -489.4154
 06  6 28 20 29 30.0000000  0  9G14G30G20G 6G 1G 7G16G22G25
  21746649.0594  -15178436.35648 -11787983.60047  21746647.9774   21746648.9624
      -377.8454       -294.4514
  24270597.3554   -6329731.94847  -4929770.45646  24270596.6484   24270598.6024
     -3465.7454      -2700.5914
  24384745.8894   -5682285.37346  -4366522.74746  24384744.4914   24384750.2584
      3098.3514       2414.3034
  24108591.2294   -6598672.23847  -5126505.19846  24108590.5444   24108595.1364
        39.2874         30.6064
  21591569.1424  -19312662.08448 -15042723.05347  21591568.6984   21591570.5914
      1478.1914       1151.8334
  22992563.0394   -9441014.99347  -7351038.58446  22992562.6954   22992567.6174
      1924.9514       1499.9584
  20917378.7444  -21888320.62448 -17045168.77747  20917379.0804   20917381.3544
      2095.7894       1633.0744
  22504599.1594   -8783173.41847  -6834074.17447  22504601.0404   22504601.1734
     -3183.6434      -2480.7324
  21815793.0724  -11356802.07248  -8842971.45247  21815793.2724   21815795.0484
      -629.4764       -490.4914
 06  6 28 20 30  0.0000000  0  9G14G30G20G 6G 1G 7G16G22G25
  21748827.2634  -15166985.72948 -11779061.06047  21748827.0404   21748828.3134
      -385.9554       -300.7194
  24290391.9784   -6225706.44646  -4848711.60946  24290391.7894   24290395.0584
     -3469.6664      -2703.6334
  24367077.5924   -5775130.59946  -4438869.61646  24367075.7804   24367083.4494
      3091.3854       2408.8704
  24108395.0224   -6599702.95547  -5127308.32846  24108394.4964   24108400.7244
        29.2344         22.7894
  21583134.2764  -19356988.18948 -15077262.87447  21583134.2144   21583135.7034
      1476.3524       1150.4084
  22981574.8354   -9498761.10347  -7396035.48846  22981573.3484   22981577.4804
      1924.2744       1499.4324
  20905455.8554  -21950979.38248 -17093993.74247  20905455.5764   20905457.7204
      2080.9584       1621.5254
  22522792.9014   -8687565.63747  -6759574.66947  22522793.1354   22522795.7194
     -3190.6624      -2486.2164
  21819384.7604  -11337928.93948  -8828265.11247  21819384.8084   21819386.5594
      -629.3784       -490.4244
 06  6 28 20 30 30.0000000  0  9G14G30G20G 6G 1G 7G16G22G25
  21751057.5924  -15155265.87648 -11769928.72047  21751057.4634   21751058.5344
      -395.3954       -308.0944
  24310214.3724   -6121536.74746  -4767540.49546  24310213.9414   24310217.8844
     -3474.9864      -2707.7864
  24349457.0794   -5867722.17846  -4511018.89146  24349459.4574   24349459.9214
      3082.0444       2401.5934
  24108264.8294   -6600390.13447  -5127843.73946  24108263.8224   24108268.3194
        16.8754         13.1494
  21574714.5634  -19401231.90948 -15111738.48547  21574714.8194   21574716.1724
      1473.1424       1147.8884
  22970593.7524   -9556456.89847  -7440993.14846  22970592.5524   22970599.2114
      1922.3294       1497.9124
  20893621.7904  -22013165.05848 -17142450.07047  20893622.2044   20893624.2344
      2064.7304       1608.8704
  22541032.6534   -8591717.44747  -6684887.85047  22541033.2664   22541036.2244
     -3199.0264      -2492.7694
  21822981.3514  -11319032.27848  -8813540.44047  21822980.4874   21822982.3454
      -630.6354       -491.4144
 06  6 28 20 31  0.0000000  0  9G14G30G20G 6G 1G 7G16G22G25
  21753338.7484  -15143275.90948 -11760585.89747  21753338.5234   21753340.0344
      -404.8834       -315.4994
  24330065.8684   -6017226.89847  -4686260.15346  24330065.6004   24330066.7374
     -3479.7234      -2711.4724
  24331887.5574   -5960058.17846  -4582969.02846  24331887.8044   24331890.6294
      3072.7664       2394.3454
  24108199.4874   -6600732.68647  -5128110.61646  24108197.9954   24108202.7794
         5.0284          3.9114
  21566311.2254  -19445391.86248 -15146148.82647  21566311.7184   21566313.2274
      1470.0314       1145.4754
  22959625.5964   -9614100.20847  -7485909.87846  22959625.5644   22959631.4384
      1920.1464       1496.2064
  20881878.7284  -22074876.38648 -17190536.77947  20881878.3934   20881881.0154
      2048.5544       1596.2774
  22559317.6284   -8495632.12347  -6610016.23547  22559317.2874   22559320.1104
     -3207.4434      -2499.2934
  21826580.6264  -11300113.89348  -8798798.82647  21826580.4794   21826582.5154
      -631.7324       -492.2754
 06  6 28 20 31 30.0000000  0  9G14G30G20G 6G 1G 7G16G22G25
  21755672.5254  -15131014.70148 -11751031.73147  21755671.8104   21755673.2904
      -413.2244       -322.0064
  24349938.3424   -5912779.77346  -4604872.77046  24349940.6834   24349942.3954
     -3483.6984      -2714.5754
  24314365.4164   -6052136.31446  -4654718.13746  24314365.1664   24314368.1324
      3064.9594       2388.2724
  24108198.7254   -6600729.52847  -5128108.11346  24108199.1244   24108204.7604
        -6.1434         -4.7904
  21557924.2634  -19489466.20048 -15180492.45547  21557923.6704   21557926.4224
      1467.7214       1143.6524
  22948666.9194   -9671688.70647  -7530783.90946  22948666.1004   22948671.0774
      1918.7704       1495.1374
  20870226.3534  -22136111.89448 -17238252.72747  20870226.4474   20870228.2724
      2033.2304       1584.3364
  22577646.3424   -8399312.46247  -6534962.03247  22577646.8084   22577647.9034
     -3214.5514      -2504.8684
  21830184.2314  -11281175.23448  -8784041.43547  21830184.3144   21830186.5174
      -631.7004       -492.2584
 06  6 28 20 32  0.0000000  0  9G14G30G20G 6G 1G 7G16G22G25
  21758056.7524  -15118481.82748 -11741265.87047  21758056.4964   21758058.1164
      -422.0194       -328.8434
  24369842.1404   -5808198.64947  -4523381.08346  24369842.8054   24369845.0054
     -3487.5934      -2717.6004
  24296894.7954   -6143955.09046  -4726265.21846  24296893.5754   24296896.4364
      3056.5464       2381.7174
  24108263.9044   -6600380.59847  -5127836.16546  24108264.4224   24108270.7034
       -17.0834        -13.3144
  21549553.5724  -19533454.17348 -15214768.78447  21549552.9044   21549555.7614
      1465.1614       1141.6964
  22937717.6804   -9729221.16647  -7575614.33046  22937717.9564   22937722.5334
      1917.0424       1493.8044
  20858663.5804  -22196870.83348 -17285597.31947  20858663.9574   20858665.8254
      2017.7304       1572.2634
  22596018.8444   -8302762.11547  -6459728.06247  22596019.4354   22596021.6104
     -3221.6214      -2510.3584
  21833791.5554  -11262218.84448  -8769270.21747  21833791.7304   21833793.4924
      -631.8504       -492.3614
 06  6 28 20 32 30.0000000  0  9G14G30G20G 6G 1G 7G16G22G25
  21760495.0424  -15105673.34148 -11731285.24147  21760494.6694   21760495.7214
      -431.7094       -336.3974
  24389767.1864   -5703484.13947  -4441785.39846  24389766.5794   24389770.8944
     -3492.9754      -2721.7994
  24279470.3984   -6235509.52446  -4797606.31146  24279470.0504   24279473.0984
      3046.7314       2374.0774
  24108399.4424   -6599682.06047  -5127291.80846  24108399.2324   24108402.9994
       -29.6734        -23.1244
  21541199.7954  -19577351.53448 -15248974.52447  21541200.1234   21541201.7744
      1461.5304       1138.8624
  22926780.7234   -9786692.55247  -7620397.14946  22926779.7664   22926786.0114
      1914.6084       1491.8874
  20847193.5454  -22257149.07048 -17332567.33247  20847193.4474   20847195.3294
      2001.0744       1559.2814
  22614436.3904   -8205981.63847  -6384314.78647  22614436.1954   22614435.7784
     -3229.9184      -2516.8324
  21837402.3464  -11243243.48248  -8754484.20147  21837402.4984   21837404.2704
      -633.0354       -493.2734
 06  6 28 20 33  0.0000000  0  9G14G30G20G 6G 1G 7G16G22G25
  21762984.2624  -15092588.00948 -11721088.89647  21762983.8574   21762985.3394
      -441.0604       -343.6954
  24409720.2234   -5598639.12646  -4360088.04846  24409718.3284   24409720.4434
     -3497.1164      -2725.0354
  24262097.8424   -6326797.54547  -4868739.79346  24262098.4734   24262103.1304
      3038.2994       2367.4924
  24108597.9674   -6598632.79947  -5126474.15646  24108597.4664   24108604.2334
       -41.1644        -32.0814
  21532864.2984  -19621156.58648 -15283108.32647  21532864.2654   21532866.7264
      1458.3304       1136.3544
  22915857.9614   -9844100.27747  -7665130.38946  22915856.7064   22915862.4184
      1912.2154       1490.0344
  20835814.9144  -22316945.28548 -17379161.75847  20835814.4734   20835816.4324
      1984.8094       1546.5814
  22632895.9114   -8108973.87347  -6308724.39947  22632895.0904   22632898.4224
     -3237.5964      -2522.8444
  21841016.1904  -11224250.76648  -8739684.68047  21841017.0424   21841018.1304
      -633.8134       -493.8764
 06  6 28 20 33 30.0000000  0  9G14G30G20G 6G 1G 7G16G22G25
  21765527.1544  -15079227.35148 -11710678.00247  21765526.3574   21765528.3834
      -449.8164       -350.5044
  24429693.2884   -5493668.95247  -4278293.12446  24429695.1154   24429697.9584
     -3501.1644      -2728.1804
  24244778.2704   -6417819.32546  -4939665.86746  24244778.1854   24244781.3164
      3029.5394       2360.6794
  24108861.6004   -6597234.42447  -5125384.47546  24108861.6424   24108870.2014
       -52.2704        -40.7384
  21524546.0064  -19664870.20448 -15317170.87447  21524545.2074   21524547.8274
      1455.7274       1134.3184
  22904946.2434   -9901444.82247  -7709814.36846  22904944.5774   22904950.7594
      1910.4924       1488.6924
  20824527.0264  -22376260.26548 -17425381.19047  20824526.6134   20824528.9724
      1969.2794       1534.5054
  22651397.9524   -8011744.46447  -6232961.30147  22651398.8144   22651400.2874
     -3244.5254      -2528.1864
  21844633.6724  -11205244.90948  -8724874.92347  21844633.7454   21844635.5494
      -633.7124       -493.8004
 06  6 28 20 34  0.0000000  0  9G14G30G20G 6G 1G 7G16G22G25
  21768123.1234  -15065586.55048 -11700048.82547  21768122.4864   21768124.0974
      -459.5494       -358.0894
  24449690.9414   -5388573.16546  -4196400.38946  24449692.3754   24449695.9414
     -3505.5294      -2731.5774
  24227509.0924   -6508568.92146  -5010379.83446  24227508.5404   24227511.9404
      3020.4834       2353.6134
  24109197.2834   -6595481.91147  -5124018.85146  24109197.5834   24109204.0354
       -64.6234        -50.3514
  21516246.3394  -19708486.93148 -15351157.92147  21516245.6944   21516248.0694
      1452.1014       1131.5224
  22894044.8664   -9958719.87047  -7754444.19946  22894044.7424   22894048.9844
      1908.2304       1486.9234
  20813332.5524  -22435088.88448 -17471221.63948  20813332.1554   20813334.7084
      1952.5994       1521.5024
  22669942.1714   -7914292.41947  -6157024.72447  22669942.3804   22669944.7714
     -3252.2794      -2534.2464
  21848253.4624  -11186223.52148  -8710053.05847  21848254.0634   21848255.0994
      -634.6814       -494.5754
 06  6 28 20 34 30.0000000  0  8G14G20G 6G 1G 7G16G22G25
  21770772.1474  -15051664.77148 -11689200.70047  21770771.7784   21770773.5614
      -468.5964       -365.1244
  24210292.8984   -6599044.59347  -5080880.34046  24210292.4444   24210296.7814
      3011.3564       2346.5144
  24109599.1164   -6593374.89547  -5122376.97746  24109598.3784   24109604.9354
       -76.3024        -59.4504
  21507964.8254  -19752005.66648 -15385068.62147  21507964.0654   21507966.5814
      1449.0524       1129.1244
  22883160.2354  -10015923.58747  -7799018.44446  22883160.3404   22883164.1744
      1905.7444       1485.0094
  20802229.9104  -22493430.53648 -17516682.63848  20802230.2564   20802232.1554
      1936.7384       1509.1564
  22688528.6724   -7816621.36047  -6080917.47347  22688529.1804   22688531.0714
     -3259.1414      -2539.5944
  21851875.4054  -11167188.80348  -8695220.80647  21851875.4924   21851876.8204
      -634.7014       -494.5784
 06  6 28 20 35  0.0000000  0  8G14G20G 6G 1G 7G16G22G25
  21773473.8484  -15037463.95748 -11678135.14847  21773473.4294   21773474.7744
      -478.1134       -372.5574
  24193126.3584   -6689246.99246  -5151167.91246  24193127.5764   24193128.5934
      3002.3654       2339.5014
  24110064.7974   -6590915.45147  -5120460.50646  24110067.1004   24110071.4184
       -87.7664        -68.3974
  21499701.7804  -19795427.55648 -15418903.85647  21499701.1004   21499703.3154
      1445.7374       1126.5664
  22872288.4154  -10073056.75747  -7843537.73846  22872288.8214   22872292.5924
      1903.5244       1483.2704
  20791220.7904  -22551286.47448 -17561765.15348  20791221.0114   20791223.1384
      1920.3934       1496.4254
  22707155.1604   -7718737.22747  -6004644.19747  22707156.2014   22707156.8384
     -3266.2574      -2545.1384
  21855499.4594  -11148145.06548  -8680381.54247  21855499.6314   21855501.1594
      -635.0274       -494.8034
 06  6 28 20 35 30.0000000  0  8G14G20G 6G 1G 7G16G22G25
  21776230.5614  -15022980.31448 -11666849.21747  21776230.8124   21776232.2694
      -487.4374       -379.8274
  24176016.1554   -6779171.32246  -5221238.85946  24176016.5094   24176018.8244
      2992.7594       2332.0234
  24110601.8444   -6588099.71547  -5118266.39846  24110602.4194   24110607.1134
      -100.1284        -78.0214
  21491458.1424  -19838748.01448 -15452660.05547  21491457.5324   21491460.1694
      1442.5194       1124.0554
  22861430.1404  -10130114.10647  -7887997.91846  22861429.8884   22861436.3164
      1900.5654       1480.9454
  20780304.4104  -22608652.74448 -17606466.10648  20780304.2424   20780306.3874
      1904.2814       1483.8644
  22725822.4544   -7620640.07247  -5928204.93147  22725822.4504   22725824.6514
     -3273.3294      -2550.6704
  21859125.4234  -11129091.04148  -8665534.24647  21859125.5674   21859126.9214
      -635.2534       -495.0044
 06  6 28 20 36  0.0000000  0  8G14G20G 6G 1G 7G16G22G25
  21779040.2454  -15008214.96648 -11655343.77647  21779039.1054   21779041.7864
      -495.8164       -386.3194
  24158956.9564   -6868817.69547  -5291093.17246  24158955.6984   24158960.0284
      2985.0534       2326.0214
  24111205.5134   -6584929.23147  -5115795.88546  24111204.3794   24111210.9754
      -110.8944        -86.3984
  21483233.6304  -19881967.98748 -15486337.94747  21483233.3744   21483235.3704
      1440.0554       1122.1114
  22850587.8514  -10187096.15647  -7932399.40846  22850586.9854   22850592.2034
      1898.8124       1479.5964
  20769480.4644  -22665530.72848 -17650786.56348  20769480.2634   20769482.8344
      1888.8804       1471.8584
  22744530.0084   -7522335.70547  -5851604.19947  22744529.9894   22744531.9594
     -3279.0894      -2555.1004
  21862751.7574  -11110031.03848  -8650682.29247  21862752.1594   21862754.1414
      -634.5704       -494.4764
 06  6 28 20 36 30.0000000  0  8G14G20G 6G 1G 7G16G22G25
  21781905.0714  -14993159.53448 -11643612.29347  21781904.8834   21781907.0514
      -506.6234       -394.7534
  24141952.0934   -6958176.76147  -5360723.56746  24141951.3704   24141955.1294
      2973.6884       2317.1554
  24111877.5584   -6581395.90547  -5113042.60246  24111877.1794   24111882.5984
      -123.6574        -96.3484
  21475029.7684  -19925078.52648 -15519930.57647  21475030.0674   21475032.0394
      1435.1994       1118.3364
  22839759.5554  -10243993.10247  -7976734.62146  22839759.2014   22839763.9304
      1895.4054       1476.9324
  20758751.5834  -22721911.83648 -17694719.84448  20758751.3424   20758753.5794
      1871.0814       1457.9874
  22763275.9694   -7423819.90447  -5774838.72847  22763276.9004   22763280.4224
     -3287.3034      -2561.5334
  21866382.0034  -11090959.17748  -8635821.10947  21866381.6064   21866382.7554
      -636.0054       -495.5644
 06  6 28 20 37  0.0000000  0  8G14G20G 6G 1G 7G16G22G25
  21784823.4724  -14977819.52648 -11631659.06447  21784824.3764   21784825.7194
      -516.3454       -402.3244
  24125003.0984   -7047252.88047  -5430133.58146  24125001.9564   24125002.2784
      2964.3724       2309.9024
  24112617.3664   -6577505.43147  -5110011.02846  24112617.1254   24112624.7314
      -136.0264       -106.0074
  21466846.2884  -19968084.77648 -15553441.94947  21466845.7184   21466848.2664
      1431.5244       1115.4894
  22828949.7904  -10300809.23047  -8021006.89046  22828948.5344   22828951.2774
      1892.1634       1474.4284
  20748116.2394  -22777801.29148 -17738270.02048  20748116.3324   20748118.4954
      1854.5854       1445.1264
  22782061.3144   -7325102.06747  -5697915.83747  22782060.7354   22782064.4824
     -3294.1614      -2566.8934
  21870011.2984  -11071883.57548  -8620956.99847  21870011.0094   21870012.6894
      -636.2454       -495.7694
 06  6 28 20 37 30.0000000  0  8G14G20G 6G 1G 7G16G22G25
  21787798.6164  -14962189.58548 -11619479.92447  21787797.9644   21787800.4154
      -526.4604       -410.2334
  24108104.6254   -7136039.06047  -5499317.60746  24108105.2114   24108108.7784
      2954.3744       2302.1184
  24113425.8334   -6573252.22047  -5106696.83846  24113426.7844   24113433.9334
      -148.0534       -115.3674
  21458683.8224  -20010980.10748 -15586866.87547  21458683.1184   21458685.3384
      1427.4244       1112.2714
  22818153.0214  -10357537.55047  -8065210.67946  22818151.8524   22818157.5214
      1888.9434       1471.9134
  20737575.9024  -22833193.24848 -17781432.54548  20737575.4734   20737577.6164
      1837.5184       1431.8214
  22800887.1834   -7226180.68847  -5620834.33047  22800887.5144   22800888.9004
     -3301.1684      -2572.3454
  21873642.5594  -11052801.00348  -8606087.45847  21873642.6834   21873644.5954
      -636.7434       -496.1684
 06  6 28 20 38  0.0000000  0  8G14G20G 6G 1G 7G16G22G25
  21790828.0944  -14946269.63548 -11607074.78947  21790828.2724   21790829.5644
      -535.4714       -417.2614
  24091266.8944   -7224534.74747  -5568275.25346  24091266.0774   24091268.8984
      2945.0974       2294.8734
  24114306.5024   -6568636.63747  -5103100.26846  24114306.1314   24114311.8104
      -159.7924       -124.5124
  21450541.8744  -20053764.17548 -15620205.10447  21450541.7144   21450543.7954
      1424.3804       1109.9004
  22807374.5734  -10414177.20847  -8109345.38946  22807373.2834   22807379.5904
      1886.5534       1470.0424
  20727129.7284  -22888087.71848 -17824207.41348  20727129.3654   20727131.3754
      1821.5994       1419.4294
  22819747.4074   -7127060.02947  -5543597.54847  22819748.9734   22819750.8104
     -3307.2304      -2577.0954
  21877274.6924  -11033714.41248  -8591214.78847  21877274.7444   21877276.5804
      -636.1834       -495.7234
 06  6 28 20 38 30.0000000  0  8G14G20G 6G 1G 7G16G22G25
  21793912.8644  -14930059.51248 -11594443.55047  21793912.2584   21793914.0094
      -544.2744       -424.0954
  24074480.8714   -7312738.43646  -5637005.43546  24074480.7934   24074481.7904
      2936.3864       2288.1014
  24115253.1354   -6563658.58347  -5099221.26746  24115252.9994   24115259.6284
      -170.6174       -132.9404
  21442421.7774  -20096435.89348 -15653455.79547  21442421.5864   21442424.1704
      1421.5884       1107.7424
  22796613.8154  -10470726.40447  -8153409.62146  22796613.1124   22796618.5204
      1884.6274       1468.5284
  20716778.2174  -22942484.29148 -17866594.32048  20716778.1704   20716779.9584
      1805.7824       1407.1074
  22838648.0804   -7027743.85447  -5466208.39547  22838647.8434   22838648.9774
     -3312.6464      -2581.2584
  21880906.8254  -11014625.97148  -8576340.69747  21880907.4224   21880908.7494
      -635.5194       -495.2004
 06  6 28 20 39  0.0000000  0  8G14G20G 6G 1G 7G16G22G25
  21797053.7334  -14913554.51548 -11581582.53247  21797053.9234   21797055.4564
      -555.2254       -432.6474
  24057752.3834   -7400644.38546  -5705503.55446  24057753.1674   24057756.0754
      2925.1004       2279.2954
  24116269.8664   -6558313.96347  -5095056.59646  24116268.5734   24116276.5704
      -184.4364       -143.7254
  21434324.1404  -20138990.11348 -15686614.92247  21434323.5524   21434326.1934
      1416.3574       1103.6484
  22785871.4234  -10527179.53947  -8197398.99546  22785870.0764   22785875.5324
      1879.9414       1464.8914
  20706522.3364  -22996378.32148 -17908589.62348  20706522.0884   20706524.1474
      1787.9894       1393.2224
  22857583.8324   -6928231.79647  -5388666.59847  22857584.6904   22857585.6354
     -3320.3124      -2587.2184
  21884540.9024  -10995533.54248  -8561463.49247  21884540.4554   21884542.2304
      -636.6464       -496.0904
 06  6 28 20 39 30.0000000  0  8G14G20G 6G 1G 7G16G22G25
  21800249.7794  -14896758.43648 -11568494.71147  21800249.1364   21800251.5224
      -564.5654       -439.9274
  24041082.0164   -7488254.89247  -5773771.45946  24041080.3194   24041083.5664
      2915.7134       2271.9754
  24117354.5964   -6552606.55247  -5090609.24046  24117355.5984   24117362.7594
      -195.5854       -152.4094
  21426247.8874  -20181429.95248 -15719684.92547  21426247.8654   21426249.6244
      1412.9604       1101.0164
  22775145.6414  -10583538.77447  -8241315.24546  22775145.1224   22775151.4334
      1877.4464       1462.9414
  20696361.9714  -23049773.39148 -17950196.13648  20696361.7884   20696363.4034
      1771.6844       1380.5284
  22876557.0404   -6828531.66847  -5310978.29247  22876557.0804   22876559.8694
     -3326.1424      -2591.8104
  21888172.4234  -10976443.43548  -8546588.09047  21888172.3814   21888174.6144
      -636.0834       -495.6324
 06  6 28 20 40  0.0000000  0  8G14G20G 6G 1G 7G16G22G25
  21803502.7184  -14879663.63548 -11555174.11147  21803502.7464   21803504.4354
      -575.0954       -448.1404
  24024466.6824   -7575561.53246  -5841802.60046  24024466.9364   24024469.5984
      2904.7564       2263.4414
  24118511.8484   -6546528.87347  -5085873.36446  24118510.5514   24118516.2974
      -208.9444       -162.8244
  21418195.4824  -20223746.94948 -15752659.20647  21418195.0864   21418197.3874
      1408.1324       1097.2434
  22764441.0324  -10639795.21947  -8285151.38746  22764440.5554   22764444.4674
      1873.1074       1459.5594
  20686297.1074  -23102661.83748 -17991407.88348  20686297.3464   20686299.0674
      1754.1354       1366.8404
  22895565.3184   -6728639.85147  -5233140.62346  22895566.6254   22895567.1974
     -3333.2304      -2597.3384
  21891806.3834  -10957350.47948  -8531710.47247  21891806.2104   21891807.7684
      -636.8764       -496.2864
 06  6 28 20 40 30.0000000  0  8G14G20G 6G 1G 7G16G22G25
  21806812.0264  -14862275.05948 -11541624.60147  21806811.9784   21806813.1934
      -584.2794       -455.2774
  24007912.1474   -7662568.07747  -5909599.90546  24007911.7214   24007913.1484
      2895.3934       2256.1574
  24119736.7734   -6540085.88447  -5080852.83546  24119736.2304   24119743.7474
      -220.8264       -172.0674
  21410165.6334  -20265945.24748 -15785540.99447  21410164.7454   21410167.0714
      1404.7874       1094.6354
  22753754.0864  -10695952.41747  -8328910.17046  22753753.7554   22753759.5634
      1870.3914       1457.4364
  20676328.9144  -23155048.25648 -18032228.44548  20676328.1354   20676330.1034
      1738.0564       1354.3304
  22914609.0154   -6628565.11747  -5155160.39246  22914609.6754   22914612.0754
     -3338.6214      -2601.5154
  21895438.8894  -10938261.98648  -8516836.31647  21895438.4424   21895440.1904
      -636.1554       -495.6834
 06  6 28 20 41  0.0000000  0  8G14G20G 6G 1G 7G16G22G25
  21810176.9714  -14844589.90348 -11527843.97947  21810176.9944   21810179.3144
      -594.1644       -463.0234
  23991412.7274   -7749270.47347  -5977160.20846  23991411.3604   23991414.8804
      2885.1914       2248.2054
  24121033.2344   -6533275.25847  -5075545.83246  24121033.4124   24121039.8864
      -232.5204       -181.1874
  21402158.0584  -20308021.53548 -15818327.72247  21402158.0344   21402160.1264
      1400.6674       1091.4354
  22743087.2214  -10752006.67247  -8372588.73246  22743086.6254   22743091.1124
      1867.0014       1454.8114
  20666455.6794  -23206930.16848 -18072655.88748  20666455.5324   20666457.4744
      1721.2564       1341.2344
  22933687.3274   -6528309.04947  -5077038.90747  22933688.4624   22933691.4604
     -3344.6334      -2606.2284
  21899070.7184  -10919177.77648  -8501965.50547  21899070.1914   21899072.6354
      -635.9274       -495.5514
 06  6 28 20 41 30.0000000  0  8G14G20G 6G 1G 7G16G22G25
  21813600.2514  -14826601.71448 -11513827.23747  21813599.8954   21813601.7234
      -604.6984       -471.1974
  23974972.2544   -7835661.23147  -6044477.63346  23974972.4514   23974974.1364
      2874.6054       2239.9564
  24122400.0604   -6526090.69147  -5069947.45146  24122400.8664   24122406.7264
      -245.9454       -191.6394
  21394175.9614  -20349968.28448 -15851013.49947  21394175.8004   21394177.6934
      1396.0834       1087.8674
  22732442.0324  -10807949.62247  -8416180.57546  22732441.2534   22732445.8834
      1862.9484       1451.6604
  20656680.4064  -23258300.48148 -18112684.68148  20656680.1744   20656681.9334
      1703.8744       1327.6914
  22952800.1134   -6427869.08547  -4998774.10346  22952800.9284   22952803.3294
     -3350.7804      -2610.9614
  21902702.5674  -10900093.74848  -8487094.83947  21902701.8774   21902703.5294
      -636.2024       -495.7494
 06  6 28 20 42  0.0000000  0  8G14G20G 6G 1G 7G16G22G25
  21817079.6784  -14808316.11248 -11499578.74047  21817078.9764   21817081.7674
      -614.5454       -478.8764
  23958591.9944   -7921744.93647  -6111555.88846  23958591.5884   23958592.8854
      2864.2174       2231.8614
  24123838.1174   -6518538.27547  -5064062.41846  24123838.4064   24123844.0064
      -258.5544       -201.4684
  21386217.4984  -20391790.57648 -15883602.28447  21386217.1144   21386219.3494
      1391.8634       1084.5694
  22721816.8284  -10863786.07347  -8459689.43746  22721816.6254   22721820.3194
      1859.4044       1448.8744
  20647000.9144  -23309165.49948 -18152319.73748  20647000.8034   20647002.6914
      1686.9004       1314.4764
  22971945.9674   -6327255.05447  -4920373.63146  22971947.2954   22971948.8824
     -3357.0554      -2615.9054
  21906331.6024  -10881018.07748  -8472230.67747  21906332.1804   21906333.3004
      -635.9404       -495.5494
 06  6 28 20 42 30.0000000  0  8G14G20G 6G 1G 7G16G22G25
  21820617.5514  -14789726.52248 -11485093.35947  21820617.3494   21820619.4284
      -624.6734       -486.7814
  23942268.5384   -8007514.19247  -6178389.06246  23942269.4374   23942272.4494
      2853.7654       2223.6994
  24125349.9204   -6510611.63447  -5057885.78246  24125347.7554   24125352.6104
      -270.4594       -210.7444
  21378284.0194  -20433481.23648 -15916088.51047  21378283.7174   21378286.0904
      1387.6324       1081.2794
  22711212.3364  -10919508.10147  -8503109.14946  22711212.7044   22711216.8614
      1855.7564       1446.0554
  20637418.9994  -23359518.46048 -18191555.78548  20637418.6524   20637420.6934
      1670.0654       1301.3474
  22991128.2844   -6226464.60847  -4841835.75647  22991128.2124   22991129.2124
     -3362.5234      -2620.1334
  21909960.8574  -10861946.66048  -8457369.82247  21909961.4814   21909962.6814
      -635.3164       -495.0454
 06  6 28 20 43  0.0000000  0  8G14G20G 6G 1G 7G16G22G25
  21824212.8034  -14770834.66448 -11470372.44047  21824211.9544   21824214.4564
      -634.9034       -494.7454
  23926008.7614   -8092968.94547  -6244977.12146  23926007.5504   23926011.9404
      2843.0754       2215.3824
  24126926.5964   -6502312.67947  -5051419.04346  24126927.1534   24126932.5134
      -283.1044       -220.6054
  21370375.6034  -20475040.79848 -15948472.57447  21370375.4664   21370377.6074
      1383.1094       1077.7464
  22700630.2544  -10975115.63547  -8546439.61246  22700629.5104   22700636.1014
      1851.5574       1442.7504
  20627934.4524  -23409360.70548 -18230393.86548  20627934.1424   20627935.6394
      1652.8334       1287.9024
  23010339.5284   -6125503.12047  -4763164.54646  23010340.2914   23010339.6744
     -3368.1484      -2624.5254
  21913589.2354  -10842883.27648  -8442515.21947  21913589.1534   21913589.8614
      -635.4454       -495.1494
 06  6 28 20 43 30.0000000  0  8G14G20G 6G 1G 7G16G22G25
  21827865.1794  -14751639.17448 -11455414.92347  21827865.0324   21827866.8064
      -645.1584       -502.7154
  23909808.3254   -8178106.99047  -6311318.47146  23909807.2164   23909808.0454
      2832.7184       2207.3174
  24128576.2254   -6493640.20347  -5044661.24446  24128576.9014   24128582.8744
      -295.4054       -230.1874
  21362492.3254  -20516467.39448 -15980753.03347  21362491.8144   21362494.3224
      1378.5374       1074.1844
  22690071.9424  -11030606.16247  -8589678.92046  22690071.9104   22690075.4384
      1847.4164       1439.5604
  20618546.7524  -23458690.80648 -18268832.86548  20618546.7454   20618549.2014
      1635.5564       1274.4624
  23029583.5034   -6024373.19247  -4684362.10746  23029583.5514   23029586.8484
     -3373.8764      -2628.9834
  21917214.3304  -10823829.15848  -8427667.84647  21917214.3694   21917215.8154
      -635.2224       -494.9874
 06  6 28 20 44  0.0000000  0  8G14G20G 6G 1G 7G16G22G25
  21831576.6104  -14732136.73748 -11440218.23647  21831576.6594   21831577.6714
      -655.1854       -510.5284
  23893666.5464   -8262923.85447  -6377409.51346  23893665.4864   23893668.6914
      2821.7154       2198.7264
  24130298.2164   -6484591.54747  -5037610.31146  24130298.4164   24130304.6974
      -307.8634       -239.8904
  21354635.0374  -20557756.66948 -16012926.48848  21354634.9104   21354637.2774
      1373.9854       1070.6304
  22679535.4564  -11085974.84547  -8632823.30446  22679535.0914   22679539.6564
      1843.2394       1436.2784
  20609258.1704  -23507505.66848 -18306870.38748  20609257.6764   20609259.9404
      1618.4954       1261.1694
  23048859.4724   -5923075.65347  -4605429.06746  23048859.0884   23048862.4994
     -3379.6014      -2633.4404
  21920838.7934  -10804783.09948  -8412826.75947  21920838.9334   21920840.8324
      -634.8284       -494.6684
 06  6 28 20 44 30.0000000  0  8G14G20G 6G 1G 7G16G22G25
  21835346.7264  -14712324.23748 -11424779.94047  21835346.2204   21835347.8644
      -664.7744       -517.9994
  23877589.1184   -8347415.27847  -6443246.93046  23877588.5284   23877591.3234
      2811.8344       2191.0374
  24132092.9814   -6475163.78747  -5030263.97446  24132092.5304   24132097.9854
      -319.7864       -249.1804
  21346805.2114  -20598904.77548 -16044989.95048  21346804.6024   21346806.9384
      1370.1174       1067.6244
  22669022.5804  -11141217.48047  -8675869.43846  22669021.4774   22669027.1814
      1840.1944       1433.9134
  20600066.9284  -23555802.45448 -18344504.21448  20600066.7184   20600068.8754
      1602.0664       1248.3664
  23068167.5104   -5821611.40147  -4526366.09046  23068168.6684   23068169.4284
     -3384.1854      -2637.0474
  21924461.7364  -10785744.61748  -8397991.57847  21924462.3904   21924463.7464
      -633.9644       -493.9934
 06  6 28 20 45  0.0000000  0  8G14G20G 6G 1G 7G16G22G25
  21839175.0724  -14692208.29548 -11409105.18647  21839175.0554   21839175.7054
      -676.1704       -526.8784
  23861571.0484   -8431586.26747  -6508834.69046  23861570.4544   23861573.4174
      2799.7054       2181.5884
  24133958.9354   -6465363.42647  -5022627.29946  24133958.3594   24133962.5684
      -333.3434       -259.7524
  21339000.8624  -20639917.16648 -16076947.66448  21339000.1384   21339003.2734
      1364.3284       1063.1054
  22658533.7064  -11196338.88447  -8718821.11246  22658531.8354   22658538.1324
      1834.9064       1429.7884
  20590974.4964  -23603587.07848 -18381738.96348  20590974.1794   20590975.7154
      1583.8584       1234.1614
  23087506.8584   -5719990.91947  -4447181.38846  23087506.7354   23087508.5454
     -3390.4194      -2641.8824
  21928082.2074  -10766722.19648  -8383168.89947  21928081.8074   21928083.4024
      -634.4474       -494.3684
 06  6 28 20 45 30.0000000  0  8G14G20G 6G 1G 7G16G22G25
  21843062.1054  -14671779.43048 -11393186.60247  21843061.7334   21843063.8264
      -686.2844       -534.7474
  23845615.5604   -8515426.50347  -6574164.71246  23845617.4494   23845619.1304
      2789.1794       2173.3854
  24135895.7874   -6455181.59847  -5014693.37046  24135895.9714   24135899.0504
      -345.8944       -269.5294
  21331223.8994  -20680783.68548 -16108791.70648  21331223.5774   21331225.9814
      1359.8424       1059.6274
  22648069.8354  -11251328.22647  -8761669.87546  22648069.6234   22648074.3284
      1830.6334       1426.4564
  20581980.4174  -23650850.59348 -18418567.65248  20581980.1254   20581981.8064
      1566.5834       1220.7204
  23106873.7934   -5618208.65447  -4367870.64446  23106874.5744   23106877.4474
     -3395.3694      -2645.7444
  21931698.9804  -10747708.88948  -8368353.31847  21931699.3324   21931701.3274
      -634.0374       -494.0654
 06  6 28 20 46  0.0000000  0  8G14G20G 6G 1G 7G16G22G25
  21847009.1274  -14651041.65548 -11377027.30747  21847008.4174   21847009.2274
      -696.8194       -542.9784
  23829726.1284   -8598939.17447  -6639239.49146  23829724.8384   23829728.4174
      2777.9654       2164.6494
  24137905.2264   -6444622.54047  -5006465.52346  24137905.1174   24137908.9374
      -358.4484       -279.3174
  21323475.1194  -20721507.44848 -16140524.50248  21323474.5664   21323476.2914
      1354.6794       1055.5804
  22637629.3164  -11306188.38847  -8804418.00346  22637629.1654   22637634.2574
      1826.0454       1422.9224
  20573084.7654  -23697597.03948 -18454993.43348  20573084.3634   20573086.0804
      1549.1724       1207.1504
  23126273.0774   -5516272.77247  -4288440.19146  23126271.5574   23126273.8264
     -3400.8384      -2650.0124
  21935315.5604  -10728711.04748  -8353549.81547  21935315.1844   21935316.6034
      -633.4724       -493.6314
 06  6 28 20 46 30.0000000  0  8G14G20G 6G 1G 7G16G22G25
  21851014.1774  -14629989.74448 -11360623.22747  21851014.1854   21851016.4424
      -706.9854       -550.9224
  23813895.2374   -8682117.85647  -6704053.99546  23813896.1394   23813899.2954
      2767.1084       2156.1774
  24139987.9374   -6433681.69447  -4997940.16546  24139987.2514   24139990.1464
      -371.3134       -289.3304
  21315753.3394  -20762082.52648 -16172141.43248  21315752.9194   21315755.6154
      1350.0654       1051.9934
  22627214.9174  -11360912.71747  -8847060.29946  22627214.3534   22627220.4114
      1821.7594       1419.5344
  20564288.5534  -23743821.57148 -18491012.53348  20564288.3474   20564290.2764
      1532.1024       1193.8364
  23145699.6534   -5414182.20247  -4208889.17446  23145697.7774   23145701.7624
     -3405.5674      -2653.7394
  21938927.3574  -10709725.84248  -8338756.12947  21938927.5474   21938929.5094
      -632.6494       -492.9754
 06  6 28 20 47  0.0000000  0  8G14G20G 6G 1G 7G16G22G25
  21855079.7524  -14608626.64348 -11343976.67747  21855080.1934   21855080.9614
      -717.5124       -559.1174
  23798131.6564   -8764963.75147  -6768609.21446  23798130.3074   23798134.0414
      2755.6344       2147.2404
  24142142.8024   -6422361.54747  -4989119.25846  24142142.9924   24142143.8984
      -384.0724       -299.2754
  21308060.3144  -20802510.42948 -16203643.68848  21308059.5904   21308062.0684
      1344.8894       1047.9764
  22616828.1404  -11415502.37847  -8889597.62946  22616826.9764   22616832.0534
      1816.9594       1415.8114
  20555590.9514  -23789526.25648 -18526626.55048  20555590.8014   20555592.6654
      1514.6084       1180.2204
  23165155.2614   -5311943.41647  -4129222.72146  23165154.2444   23165158.6794
     -3410.5524      -2657.5784
  21942537.4854  -10690757.87348  -8323975.89547  21942537.2094   21942538.5034
      -632.3004       -492.7144
 06  6 28 20 47 30.0000000  0  9G14G 3G20G 6G 1G 7G16G22G25
  21859205.0694  -14586950.12448 -11327085.90547  21859204.7254   21859206.3434
      -728.4074       -567.5734
  24725976.3834   -2939029.62046  -2239372.76545  24725976.9154   24725985.8814
      2801.1744       2182.7264
  23782431.6364   -8847473.79947  -6832902.74846  23782430.6014   23782432.2894
      2744.1434       2138.2914
  24144369.0334   -6410660.89847  -4980001.86146  24144368.6794   24144370.5244
      -396.9334       -309.2954
  21300395.3324  -20842788.22148 -16235028.96248  21300394.8044   21300397.6954
      1339.5344       1043.7834
  22606466.5634  -11469953.62147  -8932027.13647  22606465.3894   22606471.4714
      1812.0404       1411.9694
  20546993.2144  -23834709.65748 -18561834.36548  20546992.8504   20546994.2024
      1496.9254       1166.4434
  23184639.2464   -5209558.35647  -4049442.25646  23184638.8374   23184640.2354
     -3415.7164      -2661.5874
  21946143.3294  -10671807.43648  -8309209.31547  21946142.9334   21946145.1014
      -632.0994       -492.5384
 06  6 28 20 48  0.0000000  0  9G14G 3G20G 6G 1G 7G16G22G25
  21863390.8834  -14564954.28548 -11309946.31147  21863390.5324   21863392.2024
      -738.6694       -575.5804
  24709963.9974   -3023176.57646  -2304941.66645  24709963.3184   24709971.0704
      2808.1624       2188.1724
  23766793.9174   -8929641.24847  -6896929.27046  23766793.1354   23766796.8244
      2732.9154       2129.5424
  24146669.5294   -6398573.93747  -4970583.43146  24146670.2404   24146669.5484
      -409.3244       -318.9544
  21292760.5904  -20882909.33548 -16266292.15148  21292760.3014   21292762.9944
      1334.5114       1039.8784
  22596132.0294  -11524259.44847  -8974343.31046  22596130.2994   22596135.4944
      1807.6624       1408.5704
  20538495.2424  -23879366.05048 -18596631.51748  20538494.8744   20538496.6724
      1479.6934       1152.9984
  23204148.0644   -5107025.07547  -3969546.29846  23204148.9154   23204152.0964
     -3420.1804      -2665.0664
  21949746.2964  -10652870.90948  -8294453.58847  21949746.8904   21949748.1174
      -631.1884       -491.8354
 06  6 28 20 48 30.0000000  0  9G14G 3G20G 6G 1G 7G16G22G25
  21867635.7034  -14542644.43848 -11292562.02847  21867635.2854   21867636.8644
      -748.8584       -583.5204
  24693912.5584   -3107531.49046  -2370672.59545  24693911.1404   24693918.9704
      2815.2834       2193.7144
  23751222.8954   -9011469.55247  -6960691.56646  23751223.2384   23751225.0064
      2722.0044       2121.0324
  24149040.9394   -6386105.75547  -4960867.95246  24149041.1194   24149042.5344
      -421.9084       -328.7614
  21285154.6634  -20922877.40348 -16297436.09048  21285154.4984   21285157.1044
      1329.8624       1036.2614
  22585824.9684  -11578422.92747  -9016548.55846  22585824.4244   22585828.7664
      1803.2854       1405.1584
  20530096.2384  -23923500.22148 -18631021.75148  20530096.5174   20530098.0214
      1462.5394       1139.6364
  23223687.2674   -5004352.43447  -3889541.77146  23223687.9854   23223689.5134
     -3424.7174      -2668.6214
  21953346.5824  -10633955.09548  -8279713.99147  21953346.4184   21953347.9634
      -630.1924       -491.0504
 06  6 28 20 49  0.0000000  0  9G14G 3G20G 6G 1G 7G16G22G25
  21871941.9814  -14520016.86648 -11274930.17347  21871941.1964   21871942.6604
      -759.4514       -591.7614
  24677821.6714   -3192090.59146  -2436562.68045  24677821.2534   24677827.4504
      2821.8224       2198.8384
  23735715.8284   -9092954.24547  -7024186.14146  23735715.6344   23735718.4374
      2710.1844       2111.8324
  24151488.7304   -6373253.86647  -4950853.46646  24151488.9334   24151488.1864
      -434.6484       -338.6934
  21277579.3304  -20962688.36748 -16328457.60348  21277579.1154   21277581.3534
      1324.3934       1031.9854
  22575546.0524  -11632439.56247  -9058639.41246  22575546.0594   22575549.7904
      1798.0464       1401.0634
  20521798.4294  -23967108.97548 -18665002.56248  20521798.0804   20521799.6394
      1444.9784       1125.9614
  23243252.3284   -4901540.86547  -3809428.96246  23243252.8844   23243254.2174
     -3429.4024      -2672.2694
  21956942.0444  -10615059.07448  -8264989.80947  21956941.9234   21956943.3734
      -629.6174       -490.6244
 06  6 28 20 49 30.0000000  0  9G14G 3G20G 6G 1G 7G16G22G25
  21876308.4064  -14497067.76948 -11257047.77647  21876308.0044   21876310.2784
      -770.1954       -600.1494
  24661692.8084   -3276849.49746  -2502608.40945  24661690.1564   24661699.0924
      2828.4814       2203.9854
  23720276.8424   -9174090.63247  -7087409.26146  23720275.6144   23720280.7414
      2698.9514       2103.0884
  24154006.8464   -6360014.62847  -4940537.18246  24154005.8114   24154006.9334
      -448.0234       -349.1214
  21270034.5874  -21002337.58348 -16359353.09148  21270034.2694   21270036.5324
      1319.0934       1027.8664
  22565296.2054  -11686304.12847  -9100611.75247  22565295.2344   22565300.8384
      1793.0844       1397.2094
  20513600.0014  -24010188.82348 -18698571.23048  20513600.2004   20513601.7384
      1427.3184       1112.1994
  23262843.7704   -4798590.58947  -3729208.09146  23262843.0574   23262845.2894
     -3433.7164      -2675.6394
  21960534.8404  -10596181.23748  -8250279.78747  21960534.3714   21960535.6954
      -628.9364       -490.0564
 06  6 28 20 50  0.0000000  0  9G14G 3G20G 6G 1G 7G16G22G25
  21880736.7284  -14473798.33848 -11238915.78847  21880736.2314   21880737.7904
      -780.5994       -608.2354
  24645526.0744   -3361808.35646  -2568809.94045  24645525.1574   24645532.7354
      2835.5804       2209.5524
  23704904.4394   -9254878.27547  -7150360.67746  23704903.1024   23704906.3834
      2687.1704       2093.9114
  24156599.7804   -6346389.36947  -4929920.07646  24156599.6564   24156600.5354
      -460.2074       -358.5954
  21262520.1214  -21041824.92048 -16390122.44148  21262519.6554   21262521.8854
      1313.8404       1023.7824
  22555075.6624  -11740016.09647  -9142465.19747  22555074.6814   22555078.1744
      1788.2914       1393.4934
  20505502.6594  -24052740.75348 -18731728.54348  20505502.7304   20505504.2214
      1409.9754       1098.6784
  23282459.4684   -4695506.67347  -3648883.09746  23282458.4104   23282464.3124
     -3437.7384      -2678.7244
  21964122.3184  -10577324.52448  -8235586.23847  21964122.7714   21964124.3904
      -627.9834       -489.3234
 06  6 28 20 50 30.0000000  0  9G14G 3G20G 6G 1G 7G16G22G25
  21885225.6524  -14450211.58148 -11220536.52547  21885224.8564   21885226.8574
      -791.3404       -616.6274
  24629320.7644   -3446969.22246  -2635168.89745  24629318.4334   24629327.7304
      2842.3294       2214.7864
  23689595.7964   -9335319.02047  -7213041.78046  23689595.7094   23689597.4814
      2675.8864       2085.1104
  24159263.9764   -6332381.57847  -4919004.88046  24159265.0914   24159265.4254
      -472.8204       -368.4224
  21255036.4914  -21081152.26448 -16420767.12048  21255036.0334   21255038.3504
      1308.4564       1019.5724
  22544883.0204  -11793576.81847  -9184200.75347  22544882.9954   22544885.8104
      1783.1844       1389.5114
  20497505.5474  -24094768.16048 -18764477.14248  20497505.3994   20497506.7204
      1392.3354       1084.9484
  23302101.0234   -4592295.82447  -3568459.16846  23302101.2034   23302102.1224
     -3442.1134      -2682.1804
  21967706.4364  -10558494.13648  -8220913.21447  21967705.7644   21967708.3084
      -626.9584       -488.5294
 06  6 28 20 51  0.0000000  0  9G14G 3G20G 6G 1G 7G16G22G25
  21889775.8584  -14426297.29248 -11201902.05047  21889775.6224   21889777.4844
      -802.7644       -625.5254
  24613075.9884   -3532321.26346  -2701676.84645  24613077.9194   24613082.7604
      2847.8894       2219.1484
  23674357.5014   -9415401.52747  -7275443.72246  23674356.0494   23674357.6654
      2663.0764       2075.1064
  24162004.9424   -6317981.53247  -4907784.02946  24162004.2954   24162006.4114
      -486.9144       -379.4224
  21247584.9304  -21120308.32548 -16451278.34348  21247584.6924   21247587.1904
      1302.0264       1014.5524
  22534721.5594  -11846974.43347  -9225809.24846  22534720.9684   22534724.5444
      1776.9154       1384.6294
  20489609.2294  -24136260.89548 -18796809.10848  20489609.1574   20489611.3184
      1373.9214       1070.5824
  23321765.7234   -4488951.78347  -3487931.50846  23321766.3434   23321769.9094
     -3447.2284      -2686.1464
  21971285.3484  -10539681.75548  -8206254.23147  21971286.1244   21971287.7414
      -627.2654       -488.7944
 06  6 28 20 51 30.0000000  0  9G14G 3G20G 6G 1G 7G16G22G25
  21894388.3444  -14402060.45848 -11183016.24047  21894388.0014   21894389.8204
      -813.0984       -633.5824
  24596797.5354   -3617868.71046  -2768337.10345  24596799.1494   24596805.3904
      2854.8424       2224.5444
  23659185.3764   -9495129.92047  -7337569.75146  23659184.8384   23659188.2264
      2651.9494       2066.4564
  24164818.1884   -6303194.10347  -4896261.35846  24164817.5934   24164821.8694
      -498.9934       -388.8364
  21240165.7184  -21159297.15548 -16481659.24648  21240165.8354   21240167.9114
      1296.8374       1010.5134
  22524590.4814  -11900212.68147  -9267293.55147  22524590.8454   22524594.9094
      1772.0714       1380.8184
  20481814.3144  -24177224.34248 -18828728.64348  20481814.2284   20481815.9454
      1356.7764       1057.2234
  23341456.3194   -4385483.23947  -3407306.80846  23341455.6484   23341456.9874
     -3450.8064      -2688.9484
  21974861.8624  -10520894.55548  -8191614.85947  21974861.5344   21974863.1284
      -625.7284       -487.5694
 06  6 28 20 52  0.0000000  0  9G14G 3G20G 6G 1G 7G16G22G25
  21899061.4074  -14377501.77748 -11163879.63747  21899061.4114   21899063.1524
      -823.8764       -641.9824
  24580481.8464   -3703611.43446  -2835149.50645  24580486.2494   24580488.5924
      2861.2354       2229.5274
  23644080.8574   -9574503.31047  -7399419.14246  23644079.4524   23644083.1024
      2640.0704       2057.1974
  24167707.0364   -6288021.18247  -4884438.28146  24167706.7084   24167709.2784
      -512.0434       -398.9804
  21232778.6404  -21198118.45648 -16511909.60248  21232778.0884   21232780.5814
      1291.4024       1006.2914
  22514489.7444  -11953290.69747  -9308652.98547  22514488.1544   22514494.0364
      1766.6554       1376.6024
  20474119.4114  -24217659.41948 -18860236.46048  20474119.0934   20474121.2554
      1339.1814       1043.5204
  23361168.0924   -4281894.96347  -3326588.79846  23361168.0184   23361170.2084
     -3454.5904      -2691.8554
  21978430.4444  -10502135.25648  -8176997.20947  21978430.7384   21978432.8354
      -624.5854       -486.6584
 06  6 28 20 52 30.0000000  0  9G14G 3G20G 6G 1G 7G16G22G25
  21903798.3714  -14352613.41248 -11144486.13647  21903797.6424   21903799.2554
      -835.1524       -650.7634
  24564128.0644   -3789540.51346  -2902107.11645  24564129.0254   24564136.9844
      2867.6014       2234.5044
  23629046.6324   -9653512.60547  -7460984.81846  23629046.7684   23629049.2064
      2627.7554       2047.6094
  24170667.5214   -6272454.75647  -4872308.56646  24170666.3164   24170672.4824
      -525.4894       -409.4804
  21225424.8544  -21236763.15948 -16542022.35148  21225424.3994   21225426.5264
      1285.3884       1001.6164
  22504422.1384  -12006198.82147  -9349880.02847  22504421.5054   22504425.6824
      1760.9644       1372.1694
  20466527.1484  -24257558.23748 -18891326.41848  20466527.2504   20466528.9624
      1321.0634       1029.4014
  23380903.6444   -4178182.85247  -3245774.31246  23380903.3554   23380907.1204
     -3458.9334      -2695.2494
  21981997.0004  -10483397.92248  -8162396.68547  21981996.8624   21981998.1474
      -624.2134       -486.4004
 06  6 28 20 53  0.0000000  0  9G14G 3G20G 6G 1G 7G16G22G25
  21908595.5934  -14327399.21048 -11124838.74347  21908595.6314   21908597.6394
      -845.0984       -658.5344
  24547743.3614   -3875658.73546  -2969212.04046  24547741.4854   24547751.7634
      2874.4734       2239.8564
  23614079.4184   -9732160.67547  -7522269.06146  23614079.0364   23614082.3994
      2616.3184       2038.6894
  24173702.6504   -6256498.94447  -4859875.49346  24173701.8824   24173708.3664
      -537.2734       -418.6584
  21218103.9954  -21275233.85148 -16571999.51148  21218103.4134   21218105.7814
      1280.2314        997.5754
  22494386.0374  -12058939.41447  -9390976.55247  22494385.8184   22494389.5644
      1756.0374       1368.3524
  20459036.1074  -24296924.68248 -18922001.53848  20459035.9454   20459037.9744
      1304.0144       1016.1074
  23400660.6674   -4074354.50947  -3164869.25046  23400661.6964   23400663.3764
     -3462.0904      -2697.7474
  21985556.5464  -10464688.22648  -8147817.68047  21985557.0054   21985558.3844
      -622.5094       -485.0904
 06  6 28 20 53 30.0000000  0  9G14G 3G20G 6G 1G 7G16G22G25
  21913456.5964  -14301856.79948 -11104935.59747  21913456.6474   21913457.0284
      -856.6284       -667.5004
  24531318.6904   -3961962.89946  -3036461.88046  24531316.7884   24531326.6644
      2880.1594       2244.2904
  23599182.8974   -9810443.79547  -7583268.88346  23599183.0084   23599186.1814
      2603.6934       2028.8524
  24176812.1214   -6240151.89947  -4847137.51846  24176813.4214   24176819.9064
      -551.3224       -429.6104
  21210816.9114  -21313526.96348 -16601838.30348  21210816.9594   21210818.6154
      1273.7674        992.5434
  22484381.6614  -12111508.24047  -9431939.22546  22484380.2694   22484384.3984
      1749.6654       1363.3684
  20451646.7134  -24335756.70948 -18952260.24348  20451646.4314   20451648.0944
      1285.7804       1001.9144
  23420440.1444   -3970411.11547  -3083874.50546  23420440.3084   23420444.4044
     -3466.1144      -2700.8764
  21989112.3594  -10446005.55048  -8133259.74147  21989112.0084   21989113.6574
      -622.1054       -484.7504
 06  6 28 20 54  0.0000000  0  9G14G 3G20G 6G 1G 7G16G22G25
  21918380.3504  -14275983.58548 -11084774.67847  21918379.6864   21918381.6304
      -868.1534       -676.5014
  24514860.4814   -4048450.06446  -3103854.39446  24514860.9924   24514867.1164
      2885.7384       2248.6274
  23584358.0744   -9888358.40647  -7643981.54746  23584356.1454   23584357.8844
      2590.9954       2018.9564
  24179997.7704   -6223411.87247  -4834093.33146  24179997.9484   24180004.8664
      -564.8274       -440.1354
  21203563.8254  -21351639.37448 -16631536.28048  21203564.2604   21203566.0334
      1267.1504        987.3834
  22474411.7214  -12163901.73747  -9472765.27247  22474411.3124   22474416.5274
      1743.3654       1358.4474
  20444359.2714  -24374052.54648 -18982101.13848  20444359.0704   20444360.6814
      1267.4344        987.6084
  23440243.7314   -3866354.36947  -3002791.48446  23440242.8094   23440245.7734
     -3470.4804      -2704.2804
  21992661.3574  -10427349.94148  -8118722.89347  21992661.5604   21992663.6864
      -621.5194       -484.3094
 06  6 28 20 54 30.0000000  0  9G14G 3G20G 6G 1G 7G16G22G25
  21923365.3704  -14249782.44148 -11064358.24047  21923365.3684   21923367.6514
      -878.8924       -684.8654
  24498368.1754   -4135121.40946  -3171390.30245  24498367.4984   24498376.3104
      2891.8854       2253.4114
  23569598.2284   -9965906.00147  -7704408.20646  23569598.9124   23569603.2264
      2578.9094       2009.5334
  24183258.1624   -6206281.71147  -4820745.12346  24183258.4294   24183264.4384
      -576.9444       -449.5584
  21196345.8324  -21389572.27448 -16661094.39848  21196345.7734   21196347.8494
      1261.4524        982.9544
  22464474.9864  -12216120.69247  -9513455.32847  22464474.3024   22464478.3594
      1737.8794       1354.1804
  20437173.2534  -24411814.71148 -19011526.17548  20437172.9714   20437174.7984
      1250.0074        974.0214
  23460062.7424   -3762190.24847  -2921624.74446  23460063.9904   23460066.2194
     -3473.8214      -2706.8714
  21996206.6264  -10408725.57948  -8104210.42847  21996206.4244   21996207.5994
      -620.4114       -483.4434
 06  6 28 20 55  0.0000000  0  9G14G 3G20G 6G 1G 7G16G22G25
  21928414.7404  -14223250.88448 -11043684.33647  21928414.2334   21928416.1044
      -890.0114       -693.4924
  24481841.1274   -4221973.94946  -3239067.45445  24481840.4484   24481846.1294
      2897.6774       2257.9354
  23554913.1754  -10043082.86947  -7764545.99046  23554912.7254   23554915.2464
      2566.1534       1999.5834
  24186591.7804   -6188759.48947  -4807091.45146  24186592.0074   24186599.4294
      -590.6354       -460.2424
  21189162.5234  -21427322.22948 -16690509.95448  21189162.1744   21189164.3704
      1255.1864        978.0774
  22454573.0984  -12268161.21647  -9554006.32347  22454570.8684   22454575.9604
      1731.6154       1349.3324
  20430089.2344  -24449041.12448 -19040533.75248  20430089.2594   20430090.7904
      1231.9074        959.9224
  23479907.6734   -3657920.40747  -2840375.63346  23479908.1674   23479909.6894
     -3477.3754      -2709.6334
  21999744.1934  -10390131.95848  -8089721.90647  21999744.9814   21999745.7024
      -619.3534       -482.6064
 06  6 28 20 55 30.0000000  0  9G14G 3G20G 6G 1G 7G16G22G25
  21933526.0144  -14196387.67848 -11022752.00447  21933526.4244   21933528.7084
      -901.5354       -702.4974
  24465279.5164   -4309005.25146  -3306883.92345  24465277.8914   24465286.6734
      2903.2204       2262.2394
  23540298.5764  -10119886.77447  -7824393.17246  23540298.0314   23540302.1934
      2553.2604       1989.5454
  24190001.8244   -6170844.36547  -4793131.63446  24190002.8804   24190007.4414
      -603.8674       -470.5424
  21182014.0724  -21464886.70248 -16719780.96948  21182014.2764   21182015.9174
      1248.3624        972.7574
  22444702.9744  -12320020.23047  -9594415.89947  22444702.6364   22444706.8004
      1725.0144       1344.1534
  20423107.1344  -24485730.96348 -19069123.21748  20423107.0644   20423108.8904
      1213.4174        945.5304
  23499768.5804   -3553547.51947  -2759046.27746  23499768.1774   23499772.3724
     -3481.4674      -2712.8344
  22003277.0434  -10371569.71448  -8075257.82047  22003277.5084   22003277.9824
      -618.9884       -482.3124
 06  6 28 20 56 30.0000000  0  9G14G 3G20G 6G 1G 7G16G22G25
  21943940.6154  -14141660.73448 -10980107.68847  21943940.4034   21943942.1254
      -923.4274       -719.5604
  24432053.7144   -4483594.39146  -3442927.13646  24432054.9714   24432062.4454
      2915.1334       2271.5314
  23511283.2224  -10272365.13547  -7943207.40946  23511281.3144   23511285.0454
      2528.4664       1970.2284
  24197047.6544   -6133831.71347  -4764290.63746  24197046.9424   24197051.3234
      -630.6364       -491.4114
  21167825.1974  -21539449.26548 -16777881.67948  21167824.9324   21167827.1034
      1236.0864        963.1684
  22425072.7374  -12423182.15947  -9674801.70047  22425072.3484   22425075.5364
      1712.9744       1334.7694
  20409451.1584  -24557496.33748 -19125044.24848  20409450.9854   20409452.5084
      1177.9284        917.8644
  23539548.7494   -3344501.08847  -2596153.23046  23539548.2404   23539551.5874
     -3487.6814      -2717.6484
  22010323.2524  -10334541.20248  -8046404.39347  22010322.8134   22010324.6854
      -616.2364       -480.1784
 06  6 28 20 57  0.0000000  0  9G14G 3G20G 6G 1G 7G16G22G25
  21949243.5274  -14113793.71248 -10958393.15547  21949243.1994   21949244.9304
      -934.6044       -728.2714
  24415394.4264   -4571146.95946  -3511149.70346  24415394.2004   24415404.0914
      2920.9004       2276.0234
  23496883.7674  -10348033.59247  -8002169.83646  23496883.9314   23496885.5674
      2515.5854       1960.1784
  24200682.1234   -6114731.93247  -4749407.67946  24200682.1494   24200685.6214
      -643.4804       -501.4154
  21160786.0474  -21576441.43148 -16806706.75648  21160785.8354   21160788.1274
      1229.8014        958.2874
  22415311.2494  -12474478.36947  -9714772.70547  22415311.2964   22415314.2584
      1706.5804       1329.7994
  20402776.5864  -24592569.26548 -19152373.77248  20402776.2864   20402778.2934
      1159.9284        903.8334
  23559466.1644   -3239831.77347  -2514592.89046  23559466.4804   23559470.4374
     -3490.4554      -2719.8414
  22013836.8754  -10316075.12748  -8032015.23347  22013837.0324   22013838.6324
      -615.0134       -479.2424
 06  6 28 20 57 30.0000000  0  9G14G 3G20G 6G 1G 7G16G22G25
  21954611.0994  -14085589.18548 -10936415.63247  21954611.0174   21954612.8254
      -945.4474       -736.7234
  24398700.8364   -4658868.04246  -3579503.63046  24398702.1554   24398709.2374
      2926.9744       2280.7704
  23482556.7924  -10423318.06147  -8060833.02146  23482556.7894   23482559.4464
      2503.3764       1950.6774
  24204393.4134   -6095234.91647  -4734215.19246  24204392.8454   24204396.9304
      -655.9904       -511.1614
  21153784.4894  -21613237.08048 -16835378.69248  21153783.8274   21153785.8594
      1223.4694        953.3484
  22405586.2434  -12525580.48547  -9754592.46947  22405585.5874   22405589.9544
      1700.3584       1324.9554
  20396205.6604  -24627100.54848 -19179281.24148  20396205.1954   20396207.1664
      1142.3434        890.1364
  23579401.7534   -3135068.16247  -2432959.03946  23579402.0424   23579404.5424
     -3493.4824      -2722.1904
  22017344.8284  -10297641.52948  -8017651.39047  22017344.8274   22017346.2954
      -613.7484       -478.2474
 06  6 28 20 58  0.0000000  0  9G14G 3G20G 6G 1G 7G16G22G25
  21960041.8884  -14057050.56248 -10914177.76347  21960041.4644   21960043.1794
      -957.4784       -746.0844
  24381976.4184   -4746759.77646  -3647990.61645  24381975.0334   24381981.3864
      2931.6144       2284.3864
  23468304.9704  -10498220.93447  -8119198.87246  23468302.8164   23468305.4764
      2489.6934       1940.0204
  24208176.9124   -6075344.42047  -4718716.09646  24208176.7024   24208180.5024
      -670.1464       -522.1914
  21146818.8954  -21649838.50148 -16863899.28048  21146818.7304   21146821.1124
      1216.3334        947.8014
  22395898.3904  -12576490.17247  -9794262.30747  22395897.8764   22395902.3564
      1693.2174       1319.3634
  20389736.5024  -24661094.20848 -19205769.78048  20389736.5794   20389738.1824
      1123.7594        875.6594
  23599355.7674   -3030217.15547  -2351257.09846  23599356.0514   23599357.9734
     -3497.0434      -2724.9564
  22020844.9904  -10279245.44748  -8003316.77547  22020845.6414   22020847.4434
      -613.1534       -477.7714
 06  6 28 20 58 30.0000000  0  9G14G 3G20G 6G 1G 7G16G22G25
  21965537.0514  -14028172.20848 -10891675.17147  21965537.1794   21965539.0194
      -968.6734       -754.8054
  24365219.9774   -4834815.77246  -3716605.53346  24365220.2724   24365225.9914
      2937.2634       2288.7754
  23454124.1834  -10572735.72147  -8177262.31946  23454123.8614   23454124.8474
      2477.0414       1930.1574
  24212037.4904   -6055055.80747  -4702906.79146  24212038.4734   24212041.2254
      -683.1774       -532.3464
  21139891.5454  -21686239.03048 -16892263.33648  21139891.8764   21139894.0274
      1209.6794        942.6004
  22386247.9654  -12627200.61947  -9833776.86347  22386247.6874   22386252.4274
      1686.7004       1314.3224
  20383371.2314  -24694545.28548 -19231835.52148  20383370.9574   20383372.7664
      1105.5794        861.4794
  23619325.7504   -2925277.15047  -2269485.81946  23619325.7714   23619327.9764
     -3499.9054      -2727.1944
  22024339.3334  -10260883.48948  -7989008.76647  22024339.5404   22024341.4024
      -612.0164       -476.9184
 06  6 28 20 59  0.0000000  0  9G14G 3G20G 6G 1G 7G16G22G25
  21971096.7024  -13998955.66348 -10868909.05347  21971095.7554   21971099.7554
      -979.6294       -763.3794
  24348431.8524   -4923036.20746  -3785348.54946  24348431.4614   24348439.0874
      2943.0874       2293.3064
  23440017.1404  -10646862.44547  -8235023.37346  23440017.2814   23440019.7514
      2464.2364       1920.1724
  24215972.7274   -6034370.77747  -4686788.60746  24215974.0574   24215978.0754
      -696.2154       -542.5074
  21133003.5004  -21722438.68948 -16920470.86148  21133003.3154   21133005.6794
      1203.1984        937.5444
  22376637.1064  -12677711.22347  -9873135.71447  22376636.1784   22376640.1064
      1680.1944       1309.2484
  20377108.8964  -24727455.36148 -19257479.71248  20377108.3614   20377109.8264
      1087.7924        847.6204
  23639311.0174   -2820252.86347  -2187648.88446  23639310.8634   23639314.0594
     -3502.3814      -2729.1404
  22027826.4954  -10242558.46748  -7974729.52147  22027826.6134   22027827.8394
      -610.4394       -475.6864
